Time,TemperatureF,DewpointF,PressureIn,WindDirection,WindDirectionDegrees,WindSpeedMPH,WindSpeedGustMPH,Humidity,HourlyPrecipIn,Conditions,Clouds,dailyrainin,SoftwareType,DateUTC
2013-02-27 00:01:00,41.5,37.6,30.26,SW,222,11.5,11.5,86,0.00,RA,OVC,0.00,WeatherDisplay:10.37,2013-02-27 08:01:00,
2013-02-27 00:04:00,41.5,37.6,30.27,WSW,239,8.1,8.1,86,0.00,RA,OVC,0.00,WeatherDisplay:10.37,2013-02-27 08:04:00,
2013-02-27 00:06:00,41.5,37.6,30.27,SW,221,8.1,8.1,86,0.00,RA,OVC,0.00,WeatherDisplay:10.37,2013-02-27 08:06:00,
2013-02-27 00:09:00,41.5,37.6,30.27,SSW,194,8.1,8.1,86,0.00,CLR,OVC,0.00,WeatherDisplay:10.37,2013-02-27 08:09:00,
2013-02-27 00:11:00,41.5,37.6,30.27,SW,221,11.5,11.5,86,0.00,CLR,OVC,0.00,WeatherDisplay:10.37,2013-02-27 08:11:00,
2013-02-27 00:12:00,41.5,37.6,30.27,WSW,238,11.5,11.5,86,0.00,CLR,OVC,0.00,WeatherDisplay:10.37,2013-02-27 08:12:00,
2013-02-27 00:14:00,41.5,37.6,30.26,SW,230,12.7,12.7,86,0.00,CLR,OVC,0.00,WeatherDisplay:10.37,2013-02-27 08:14:00,
2013-02-27 00:16:00,41.5,37.6,30.27,SW,221,6.9,6.9,86,0.00,CLR,OVC,0.00,WeatherDisplay:10.37,2013-02-27 08:16:00,
2013-02-27 00:17:00,41.5,37.6,30.27,SSW,207,6.9,6.9,86,0.00,CLR,OVC,0.00,WeatherDisplay:10.37,2013-02-27 08:17:00,
2013-02-27 00:19:00,41.4,37.5,30.27,SSW,198,9.2,9.2,86,0.00,CLR,OVC,0.00,WeatherDisplay:10.37,2013-02-27 08:19:00,
2013-02-27 00:21:00,41.5,37.6,30.27,SW,232,9.2,9.2,86,0.00,CLR,OVC,0.00,WeatherDisplay:10.37,2013-02-27 08:21:00,
2013-02-27 00:22:00,41.5,37.6,30.27,SW,234,9.2,9.2,86,0.00,CLR,OVC,0.00,WeatherDisplay:10.37,2013-02-27 08:22:00,
2013-02-27 00:24:00,41.5,37.6,30.27,SSW,209,8.1,8.1,86,0.00,CLR,OVC,0.00,WeatherDisplay:10.37,2013-02-27 08:24:00,
2013-02-27 00:26:00,41.5,37.6,30.27,SW,229,10.4,10.4,86,0.00,CLR,OVC,0.00,WeatherDisplay:10.37,2013-02-27 08:26:00,
2013-02-27 00:27:00,41.5,37.6,30.27,SW,229,10.4,10.4,86,0.00,CLR,OVC,0.00,WeatherDisplay:10.37,2013-02-27 08:27:00,
2013-02-27 00:29:00,41.5,37.9,30.27,SSW,208,7.0,7.0,87,0.00,CLR,OVC,0.00,WeatherDisplay:10.37,2013-02-27 08:29:00,
2013-02-27 00:31:00,41.5,37.9,30.27,SSW,208,10.4,10.4,87,0.00,CLR,OVC,0.00,WeatherDisplay:10.37,2013-02-27 08:31:00,
2013-02-27 00:32:00,41.5,37.9,30.27,SW,219,10.4,10.4,87,0.00,CLR,OVC,0.00,WeatherDisplay:10.37,2013-02-27 08:32:00,
2013-02-27 00:34:00,41.4,37.8,30.27,SW,219,9.2,9.2,87,0.00,CLR,OVC,0.00,WeatherDisplay:10.37,2013-02-27 08:34:00,
2013-02-27 00:36:00,41.5,37.9,30.27,SW,236,15.0,15.0,87,0.00,CLR,OVC,0.00,WeatherDisplay:10.37,2013-02-27 08:36:00,
2013-02-27 00:37:00,41.5,37.9,30.27,SSW,211,10.4,10.4,87,0.00,CLR,OVC,0.00,WeatherDisplay:10.37,2013-02-27 08:37:00,
2013-02-27 00:40:00,41.6,38.0,30.27,SW,222,9.2,9.2,87,0.00,CLR,OVC,0.00,WeatherDisplay:10.37,2013-02-27 08:40:00,
2013-02-27 00:41:00,41.5,37.9,30.27,SW,218,9.2,9.2,87,0.00,CLR,OVC,0.00,WeatherDisplay:10.37,2013-02-27 08:41:00,
2013-02-27 00:42:00,41.5,38.2,30.27,SSW,205,10.4,10.4,88,0.00,CLR,OVC,0.00,WeatherDisplay:10.37,2013-02-27 08:42:00,
2013-02-27 00:43:00,41.5,38.2,30.27,SSW,213,10.4,10.4,88,0.00,CLR,OVC,0.00,WeatherDisplay:10.37,2013-02-27 08:43:00,
2013-02-27 00:45:00,41.4,38.1,30.27,SSW,213,13.0,13.0,88,0.00,CLR,OVC,0.00,WeatherDisplay:10.37,2013-02-27 08:45:00,
2013-02-27 00:47:00,41.3,38.3,30.27,SSW,211,9.2,9.2,89,0.00,CLR,OVC,0.00,WeatherDisplay:10.37,2013-02-27 08:47:00,
2013-02-27 00:48:00,41.3,38.3,30.27,SSW,213,8.1,8.1,89,0.00,CLR,OVC,0.00,WeatherDisplay:10.37,2013-02-27 08:48:00,
2013-02-27 00:50:00,41.2,38.2,30.27,SW,220,8.1,8.1,89,0.00,CLR,OVC,0.00,WeatherDisplay:10.37,2013-02-27 08:50:00,
2013-02-27 00:52:00,41.1,38.4,30.27,SW,226,8.1,8.1,90,0.00,CLR,OVC,0.00,WeatherDisplay:10.37,2013-02-27 08:52:00,
2013-02-27 00:53:00,41.0,38.3,30.27,SW,225,8.1,8.1,90,0.00,CLR,OVC,0.00,WeatherDisplay:10.37,2013-02-27 08:53:00,
2013-02-27 00:54:00,40.9,38.2,30.27,SW,234,9.0,9.0,90,0.00,CLR,OVC,0.00,WeatherDisplay:10.37,2013-02-27 08:54:00,
2013-02-27 00:55:00,40.9,38.2,30.27,SW,220,9.2,9.2,90,0.00,CLR,OVC,0.00,WeatherDisplay:10.37,2013-02-27 08:55:00,
2013-02-27 00:57:00,40.9,38.5,30.27,SW,234,8.0,8.0,91,0.00,CLR,OVC,0.00,WeatherDisplay:10.37,2013-02-27 08:57:00,
2013-02-27 00:58:00,40.8,38.1,30.27,SW,226,9.2,9.2,90,0.00,CLR,OVC,0.00,WeatherDisplay:10.37,2013-02-27 08:58:00,
2013-02-27 01:00:00,40.9,38.2,30.27,SW,225,6.9,6.9,90,0.00,CLR,OVC,0.00,WeatherDisplay:10.37,2013-02-27 09:00:00,
2013-02-27 01:02:00,40.9,38.2,30.27,SW,216,8.1,8.1,90,0.00,CLR,OVC,0.00,WeatherDisplay:10.37,2013-02-27 09:02:00,
2013-02-27 01:03:00,40.9,38.2,30.27,SW,220,8.1,8.1,90,0.00,CLR,OVC,0.00,WeatherDisplay:10.37,2013-02-27 09:03:00,
2013-02-27 01:05:00,41.0,38.3,30.27,SW,214,6.9,6.9,90,0.00,CLR,OVC,0.00,WeatherDisplay:10.37,2013-02-27 09:05:00,
2013-02-27 01:07:00,41.0,38.0,30.27,SSW,200,9.2,9.2,89,0.00,CLR,OVC,0.00,WeatherDisplay:10.37,2013-02-27 09:07:00,
2013-02-27 01:08:00,41.1,38.1,30.27,SSW,206,6.9,6.9,89,0.00,CLR,OVC,0.00,WeatherDisplay:10.37,2013-02-27 09:08:00,
2013-02-27 01:10:00,41.0,38.3,30.27,SW,214,6.0,9.0,90,0.00,CLR,OVC,0.00,WeatherDisplay:10.37,2013-02-27 09:10:00,
2013-02-27 01:12:00,41.0,38.3,30.27,SW,228,7.0,7.0,90,0.00,CLR,OVC,0.00,WeatherDisplay:10.37,2013-02-27 09:12:00,
2013-02-27 01:13:00,41.0,38.0,30.27,SW,225,8.1,8.1,89,0.00,CLR,OVC,0.00,WeatherDisplay:10.37,2013-02-27 09:13:00,
2013-02-27 01:15:00,41.1,37.8,30.27,SW,218,7.0,12.0,88,0.00,CLR,OVC,0.00,WeatherDisplay:10.37,2013-02-27 09:15:00,
2013-02-27 01:17:00,41.3,38.0,30.27,SW,214,8.1,8.1,88,0.00,CLR,OVC,0.00,WeatherDisplay:10.37,2013-02-27 09:17:00,
2013-02-27 01:18:00,41.3,38.3,30.27,SW,223,9.2,9.2,89,0.00,CLR,OVC,0.00,WeatherDisplay:10.37,2013-02-27 09:18:00,
2013-02-27 01:20:00,41.3,38.0,30.27,WSW,240,9.2,9.2,88,0.00,CLR,OVC,0.00,WeatherDisplay:10.37,2013-02-27 09:20:00,
2013-02-27 01:22:00,41.3,38.0,30.27,SW,234,9.2,9.2,88,0.00,CLR,OVC,0.00,WeatherDisplay:10.37,2013-02-27 09:22:00,
2013-02-27 01:23:00,41.3,38.0,30.27,SW,220,8.1,8.1,88,0.00,CLR,OVC,0.00,WeatherDisplay:10.37,2013-02-27 09:23:00,
2013-02-27 01:25:00,41.3,38.0,30.27,SW,220,10.0,10.0,88,0.00,CLR,OVC,0.00,WeatherDisplay:10.37,2013-02-27 09:25:00,
2013-02-27 01:27:00,41.4,38.1,30.27,SW,232,9.2,9.2,88,0.00,CLR,OVC,0.00,WeatherDisplay:10.37,2013-02-27 09:27:00,
2013-02-27 01:28:00,41.4,38.1,30.27,SW,229,10.4,10.4,88,0.00,CLR,OVC,0.00,WeatherDisplay:10.37,2013-02-27 09:28:00,
2013-02-27 01:30:00,41.4,38.1,30.27,SW,221,10.4,10.4,88,0.00,CLR,OVC,0.00,WeatherDisplay:10.37,2013-02-27 09:30:00,
2013-02-27 01:32:00,41.4,38.1,30.27,SW,221,10.4,10.4,88,0.00,CLR,OVC,0.00,WeatherDisplay:10.37,2013-02-27 09:32:00,
2013-02-27 01:33:00,41.3,38.0,30.27,SSW,200,10.4,10.4,88,0.00,CLR,OVC,0.00,WeatherDisplay:10.37,2013-02-27 09:33:00,
2013-02-27 01:35:00,41.3,38.0,30.27,SW,222,7.0,10.0,88,0.00,CLR,OVC,0.00,WeatherDisplay:10.37,2013-02-27 09:35:00,
2013-02-27 01:37:00,41.3,38.3,30.27,SW,219,8.1,8.1,89,0.00,CLR,OVC,0.00,WeatherDisplay:10.37,2013-02-27 09:37:00,
2013-02-27 01:38:00,41.3,38.0,30.27,SW,215,8.1,8.1,88,0.00,CLR,OVC,0.00,WeatherDisplay:10.37,2013-02-27 09:38:00,
2013-02-27 01:40:00,41.3,38.0,30.27,SW,223,9.2,9.2,88,0.00,CLR,OVC,0.00,WeatherDisplay:10.37,2013-02-27 09:40:00,
2013-02-27 01:42:00,41.3,38.0,30.28,SW,226,9.2,9.2,88,0.00,CLR,OVC,0.00,WeatherDisplay:10.37,2013-02-27 09:42:00,
2013-02-27 01:43:00,41.3,38.0,30.28,SW,223,9.2,9.2,88,0.00,CLR,OVC,0.00,WeatherDisplay:10.37,2013-02-27 09:43:00,
2013-02-27 01:45:00,41.4,38.1,30.28,SW,216,6.9,6.9,88,0.00,CLR,OVC,0.00,WeatherDisplay:10.37,2013-02-27 09:45:00,
2013-02-27 01:47:00,41.3,38.0,30.28,SW,226,6.9,6.9,88,0.00,CLR,OVC,0.00,WeatherDisplay:10.37,2013-02-27 09:47:00,
2013-02-27 01:48:00,41.4,38.1,30.28,SW,235,7.0,7.0,88,0.00,CLR,OVC,0.00,WeatherDisplay:10.37,2013-02-27 09:48:00,
2013-02-27 01:50:00,41.3,38.0,30.28,SW,222,4.6,4.6,88,0.00,CLR,OVC,0.00,WeatherDisplay:10.37,2013-02-27 09:50:00,
2013-02-27 01:52:00,41.2,38.2,30.28,SW,236,5.8,5.8,89,0.00,CLR,OVC,0.00,WeatherDisplay:10.37,2013-02-27 09:52:00,
2013-02-27 01:53:00,41.2,38.2,30.28,SW,214,5.8,5.8,89,0.00,CLR,OVC,0.00,WeatherDisplay:10.37,2013-02-27 09:53:00,
2013-02-27 01:55:00,41.1,38.1,30.28,SW,226,6.9,6.9,89,0.00,CLR,OVC,0.00,WeatherDisplay:10.37,2013-02-27 09:55:00,
2013-02-27 01:57:00,41.0,38.3,30.28,SW,228,6.0,6.0,90,0.00,CLR,OVC,0.00,WeatherDisplay:10.37,2013-02-27 09:57:00,
2013-02-27 01:58:00,41.0,38.3,30.28,SW,226,6.9,6.9,90,0.00,CLR,OVC,0.00,WeatherDisplay:10.37,2013-02-27 09:58:00,
2013-02-27 02:00:00,40.9,38.2,30.28,SW,228,7.0,7.0,90,0.00,CLR,OVC,0.00,WeatherDisplay:10.37,2013-02-27 10:00:00,
2013-02-27 02:02:00,40.9,38.2,30.28,SW,227,11.5,11.5,90,0.00,CLR,OVC,0.00,WeatherDisplay:10.37,2013-02-27 10:02:00,
2013-02-27 02:03:00,40.9,38.2,30.28,SSW,209,8.1,8.1,90,0.00,CLR,OVC,0.00,WeatherDisplay:10.37,2013-02-27 10:03:00,
2013-02-27 02:04:00,40.9,38.2,30.28,SW,217,8.1,8.1,90,0.00,CLR,OVC,0.00,WeatherDisplay:10.37,2013-02-27 10:04:00,
2013-02-27 02:05:00,40.9,38.2,30.28,SW,235,8.1,8.1,90,0.00,CLR,OVC,0.00,WeatherDisplay:10.37,2013-02-27 10:05:00,
2013-02-27 02:07:00,40.9,38.2,30.28,SW,223,9.0,9.0,90,0.00,CLR,OVC,0.00,WeatherDisplay:10.37,2013-02-27 10:07:00,
2013-02-27 02:09:00,40.9,37.9,30.28,SW,231,10.4,10.4,89,0.00,CLR,OVC,0.00,WeatherDisplay:10.37,2013-02-27 10:09:00,
2013-02-27 02:10:00,40.9,37.9,30.28,SW,233,6.9,6.9,89,0.00,CLR,OVC,0.00,WeatherDisplay:10.37,2013-02-27 10:10:00,
2013-02-27 02:13:00,40.9,38.2,30.28,SW,236,8.1,8.1,90,0.00,CLR,OVC,0.00,WeatherDisplay:10.37,2013-02-27 10:13:00,
2013-02-27 02:14:00,40.9,38.2,30.28,WSW,240,8.1,8.1,90,0.00,CLR,OVC,0.00,WeatherDisplay:10.37,2013-02-27 10:14:00,
2013-02-27 02:16:00,40.9,38.2,30.28,WSW,240,6.0,6.0,90,0.00,CLR,OVC,0.00,WeatherDisplay:10.37,2013-02-27 10:16:00,
2013-02-27 02:18:00,41.0,38.0,30.28,SW,226,9.2,9.2,89,0.00,CLR,OVC,0.00,WeatherDisplay:10.37,2013-02-27 10:18:00,
2013-02-27 02:19:00,41.0,38.0,30.28,SW,234,10.4,10.4,89,0.00,CLR,OVC,0.00,WeatherDisplay:10.37,2013-02-27 10:19:00,
2013-02-27 02:21:00,41.0,38.0,30.28,SW,223,9.2,9.2,89,0.00,CLR,OVC,0.00,WeatherDisplay:10.37,2013-02-27 10:21:00,
2013-02-27 02:23:00,41.1,38.1,30.28,SW,223,10.0,10.0,89,0.00,CLR,OVC,0.00,WeatherDisplay:10.37,2013-02-27 10:23:00,
2013-02-27 02:25:00,41.1,37.8,30.28,SW,220,11.5,11.5,88,0.00,CLR,OVC,0.00,WeatherDisplay:10.37,2013-02-27 10:25:00,
2013-02-27 02:26:00,41.2,37.9,30.28,SW,231,9.2,9.2,88,0.00,CLR,OVC,0.00,WeatherDisplay:10.37,2013-02-27 10:26:00,
2013-02-27 02:28:00,41.2,37.9,30.28,SW,223,7.0,7.0,88,0.00,CLR,OVC,0.00,WeatherDisplay:10.37,2013-02-27 10:28:00,
2013-02-27 02:30:00,41.2,37.9,30.28,SW,226,8.1,8.1,88,0.00,CLR,OVC,0.00,WeatherDisplay:10.37,2013-02-27 10:30:00,
2013-02-27 02:32:00,41.2,37.9,30.28,SW,233,9.2,9.2,88,0.00,CLR,OVC,0.00,WeatherDisplay:10.37,2013-02-27 10:32:00,
2013-02-27 02:34:00,41.2,37.9,30.28,WSW,241,8.1,8.1,88,0.00,CLR,OVC,0.00,WeatherDisplay:10.37,2013-02-27 10:34:00,
2013-02-27 02:35:00,41.2,37.9,30.28,SW,232,9.0,9.0,88,0.00,CLR,OVC,0.00,WeatherDisplay:10.37,2013-02-27 10:35:00,
2013-02-27 02:37:00,41.3,38.0,30.28,SW,217,10.4,10.4,88,0.00,CLR,OVC,0.00,WeatherDisplay:10.37,2013-02-27 10:37:00,
2013-02-27 02:39:00,41.3,38.3,30.28,WSW,243,10.0,10.0,89,0.00,CLR,OVC,0.00,WeatherDisplay:10.37,2013-02-27 10:39:00,
2013-02-27 02:40:00,41.3,38.3,30.28,SW,236,6.9,6.9,89,0.00,CLR,OVC,0.00,WeatherDisplay:10.37,2013-02-27 10:40:00,
2013-02-27 02:42:00,41.3,38.0,30.28,SSW,209,10.4,10.4,88,0.00,CLR,OVC,0.00,WeatherDisplay:10.37,2013-02-27 10:42:00,
2013-02-27 02:44:00,41.3,38.0,30.28,SW,220,11.5,11.5,88,0.00,CLR,OVC,0.00,WeatherDisplay:10.37,2013-02-27 10:44:00,
2013-02-27 02:45:00,41.4,38.1,30.28,SW,220,8.1,8.1,88,0.00,CLR,OVC,0.00,WeatherDisplay:10.37,2013-02-27 10:45:00,
2013-02-27 02:46:00,41.4,38.1,30.28,SW,220,8.1,8.1,88,0.00,CLR,OVC,0.00,WeatherDisplay:10.37,2013-02-27 10:46:00,
2013-02-27 02:47:00,41.4,38.1,30.28,SW,227,6.9,6.9,88,0.00,CLR,OVC,0.00,WeatherDisplay:10.37,2013-02-27 10:47:00,
2013-02-27 02:49:00,41.3,38.0,30.28,WSW,239,9.2,9.2,88,0.00,CLR,OVC,0.00,WeatherDisplay:10.37,2013-02-27 10:49:00,
2013-02-27 02:50:00,41.3,38.0,30.28,SW,232,10.0,10.0,88,0.00,CLR,OVC,0.00,WeatherDisplay:10.37,2013-02-27 10:50:00,
2013-02-27 02:51:00,41.3,38.0,30.28,SW,223,9.2,9.2,88,0.00,CLR,OVC,0.00,WeatherDisplay:10.37,2013-02-27 10:51:00,
2013-02-27 02:52:00,41.3,38.0,30.28,SW,232,11.5,11.5,88,0.00,CLR,OVC,0.00,WeatherDisplay:10.37,2013-02-27 10:52:00,
2013-02-27 02:54:00,41.3,38.0,30.28,SW,234,6.0,6.0,88,0.00,CLR,OVC,0.00,WeatherDisplay:10.37,2013-02-27 10:54:00,
2013-02-27 02:56:00,41.3,38.0,30.28,SW,227,8.1,8.1,88,0.00,CLR,OVC,0.00,WeatherDisplay:10.37,2013-02-27 10:56:00,
2013-02-27 02:57:00,41.3,38.0,30.28,SW,229,8.1,8.1,88,0.00,CLR,OVC,0.00,WeatherDisplay:10.37,2013-02-27 10:57:00,
2013-02-27 02:59:00,41.3,38.3,30.28,SW,229,7.0,7.0,89,0.00,CLR,OVC,0.00,WeatherDisplay:10.37,2013-02-27 10:59:00,
2013-02-27 03:01:00,41.3,38.3,30.28,SW,231,10.4,10.4,89,0.00,CLR,OVC,0.00,WeatherDisplay:10.37,2013-02-27 11:01:00,
2013-02-27 03:02:00,41.3,38.3,30.28,SW,227,6.9,6.9,89,0.00,CLR,OVC,0.00,WeatherDisplay:10.37,2013-02-27 11:02:00,
2013-02-27 03:05:00,41.3,38.3,30.28,SW,218,11.5,11.5,89,0.00,CLR,OVC,0.00,WeatherDisplay:10.37,2013-02-27 11:05:00,
2013-02-27 03:06:00,41.3,38.3,30.28,SW,231,11.5,11.5,89,0.00,CLR,OVC,0.00,WeatherDisplay:10.37,2013-02-27 11:06:00,
2013-02-27 03:08:00,41.2,38.5,30.28,SW,227,9.2,9.2,90,0.00,CLR,OVC,0.00,WeatherDisplay:10.37,2013-02-27 11:08:00,
2013-02-27 03:10:00,41.1,38.4,30.28,SW,235,6.9,6.9,90,0.00,CLR,OVC,0.00,WeatherDisplay:10.37,2013-02-27 11:10:00,
2013-02-27 03:11:00,41.0,38.6,30.28,SW,218,5.8,5.8,91,0.00,CLR,OVC,0.00,WeatherDisplay:10.37,2013-02-27 11:11:00,
2013-02-27 03:13:00,40.9,38.5,30.28,SW,231,5.8,5.8,91,0.00,CLR,OVC,0.00,WeatherDisplay:10.37,2013-02-27 11:13:00,
2013-02-27 03:14:00,40.8,38.7,30.28,SW,223,5.0,5.0,92,0.00,CLR,OVC,0.00,WeatherDisplay:10.37,2013-02-27 11:14:00,
2013-02-27 03:15:00,40.7,38.6,30.28,SW,225,6.0,12.0,92,0.00,CLR,OVC,0.00,WeatherDisplay:10.37,2013-02-27 11:15:00,
2013-02-27 03:16:00,40.7,38.3,30.28,SW,215,8.1,8.1,91,0.00,CLR,OVC,0.00,WeatherDisplay:10.37,2013-02-27 11:16:00,
2013-02-27 03:18:00,40.6,38.5,30.28,SW,236,6.9,6.9,92,0.00,CLR,OVC,0.00,WeatherDisplay:10.37,2013-02-27 11:18:00,
2013-02-27 03:19:00,40.6,38.5,30.28,SW,225,6.9,6.9,92,0.00,CLR,OVC,0.00,WeatherDisplay:10.37,2013-02-27 11:19:00,
2013-02-27 03:20:00,40.6,38.5,30.28,SW,229,9.2,9.2,92,0.00,CLR,OVC,0.00,WeatherDisplay:10.37,2013-02-27 11:20:00,
2013-02-27 03:21:00,40.6,38.5,30.28,SSW,213,4.6,4.6,92,0.00,CLR,OVC,0.00,WeatherDisplay:10.37,2013-02-27 11:21:00,
2013-02-27 03:23:00,40.6,38.5,30.28,SW,232,8.0,8.0,92,0.00,CLR,OVC,0.00,WeatherDisplay:10.37,2013-02-27 11:23:00,
2013-02-27 03:24:00,40.5,38.6,30.28,SW,227,8.1,8.1,93,0.00,CLR,OVC,0.00,WeatherDisplay:10.37,2013-02-27 11:24:00,
2013-02-27 03:25:00,40.5,38.4,30.28,SW,223,8.1,8.1,92,0.00,CLR,OVC,0.00,WeatherDisplay:10.37,2013-02-27 11:25:00,
2013-02-27 03:26:00,40.5,38.4,30.28,SW,229,6.9,6.9,92,0.00,CLR,OVC,0.00,WeatherDisplay:10.37,2013-02-27 11:26:00,
2013-02-27 03:28:00,40.4,38.5,30.28,WSW,241,5.8,5.8,93,0.00,CLR,OVC,0.00,WeatherDisplay:10.37,2013-02-27 11:28:00,
2013-02-27 03:29:00,40.4,38.5,30.28,SW,231,5.8,5.8,93,0.00,CLR,OVC,0.00,WeatherDisplay:10.37,2013-02-27 11:29:00,
2013-02-27 03:30:00,40.4,38.5,30.28,SW,234,5.0,5.0,93,0.00,CLR,OVC,0.00,WeatherDisplay:10.37,2013-02-27 11:30:00,
2013-02-27 03:31:00,40.4,38.5,30.28,SW,227,6.9,6.9,93,0.00,CLR,OVC,0.00,WeatherDisplay:10.37,2013-02-27 11:31:00,
2013-02-27 03:34:00,40.4,38.3,30.28,SSW,213,5.0,5.0,92,0.00,CLR,OVC,0.00,WeatherDisplay:10.37,2013-02-27 11:34:00,
2013-02-27 03:35:00,40.5,38.4,30.28,SSW,213,6.9,6.9,92,0.00,CLR,OVC,0.00,WeatherDisplay:10.37,2013-02-27 11:35:00,
2013-02-27 03:36:00,40.5,38.4,30.27,SW,222,5.8,5.8,92,0.00,CLR,OVC,0.00,WeatherDisplay:10.37,2013-02-27 11:36:00,
2013-02-27 03:39:00,40.5,38.4,30.28,SW,228,5.0,5.0,92,0.00,CLR,OVC,0.00,WeatherDisplay:10.37,2013-02-27 11:39:00,
2013-02-27 03:40:00,40.4,38.5,30.28,SW,233,5.8,5.8,93,0.00,CLR,OVC,0.00,WeatherDisplay:10.37,2013-02-27 11:40:00,
2013-02-27 03:41:00,40.4,38.3,30.28,SW,217,5.0,5.0,92,0.00,CLR,OVC,0.00,WeatherDisplay:10.37,2013-02-27 11:41:00,
2013-02-27 03:44:00,40.6,38.2,30.28,SW,227,10.4,10.4,91,0.00,CLR,OVC,0.00,WeatherDisplay:10.37,2013-02-27 11:44:00,
2013-02-27 03:46:00,40.7,38.3,30.28,SW,221,8.1,8.1,91,0.00,CLR,OVC,0.00,WeatherDisplay:10.37,2013-02-27 11:46:00,
2013-02-27 03:49:00,40.7,38.3,30.28,SW,232,6.9,6.9,91,0.00,CLR,OVC,0.00,WeatherDisplay:10.37,2013-02-27 11:49:00,
2013-02-27 03:51:00,40.7,38.3,30.27,SW,224,9.2,9.2,91,0.00,CLR,OVC,0.00,WeatherDisplay:10.37,2013-02-27 11:51:00,
2013-02-27 03:52:00,40.7,38.3,30.27,WSW,239,8.1,8.1,91,0.00,CLR,OVC,0.00,WeatherDisplay:10.37,2013-02-27 11:52:00,
2013-02-27 03:54:00,40.8,38.4,30.27,SW,225,8.1,8.1,91,0.00,CLR,OVC,0.00,WeatherDisplay:10.37,2013-02-27 11:54:00,
2013-02-27 03:56:00,40.7,38.3,30.27,SW,228,9.2,9.2,91,0.00,CLR,OVC,0.00,WeatherDisplay:10.37,2013-02-27 11:56:00,
2013-02-27 03:57:00,40.8,38.4,30.27,SW,219,6.9,6.9,91,0.00,CLR,OVC,0.00,WeatherDisplay:10.37,2013-02-27 11:57:00,
2013-02-27 03:59:00,40.8,38.4,30.27,SW,227,6.9,6.9,91,0.00,CLR,OVC,0.00,WeatherDisplay:10.37,2013-02-27 11:59:00,
2013-02-27 04:02:00,40.8,38.4,30.27,SW,228,7.0,7.0,91,0.00,CLR,OVC,0.00,WeatherDisplay:10.37,2013-02-27 12:02:00,
2013-02-27 04:04:00,40.8,38.4,30.27,SW,231,8.0,8.0,91,0.00,CLR,OVC,0.00,WeatherDisplay:10.37,2013-02-27 12:04:00,
2013-02-27 04:07:00,40.9,38.2,30.28,SW,233,6.9,6.9,90,0.00,CLR,OVC,0.00,WeatherDisplay:10.37,2013-02-27 12:07:00,
2013-02-27 04:09:00,41.0,38.3,30.28,SW,226,8.1,8.1,90,0.00,CLR,OVC,0.00,WeatherDisplay:10.37,2013-02-27 12:09:00,
2013-02-27 04:10:00,41.0,38.3,30.27,SSW,204,9.2,9.2,90,0.00,CLR,OVC,0.00,WeatherDisplay:10.37,2013-02-27 12:10:00,
2013-02-27 04:12:00,41.1,38.4,30.27,SW,219,6.0,6.0,90,0.00,CLR,OVC,0.00,WeatherDisplay:10.37,2013-02-27 12:12:00,
2013-02-27 04:15:00,41.0,38.3,30.27,SW,217,8.1,8.1,90,0.00,CLR,OVC,0.00,WeatherDisplay:10.37,2013-02-27 12:15:00,
2013-02-27 04:17:00,41.1,38.4,30.27,SSW,205,11.5,11.5,90,0.00,CLR,OVC,0.00,WeatherDisplay:10.37,2013-02-27 12:17:00,
2013-02-27 04:20:00,41.1,38.4,30.27,SW,219,6.9,6.9,90,0.00,CLR,OVC,0.00,WeatherDisplay:10.37,2013-02-27 12:20:00,
2013-02-27 04:22:00,41.1,38.4,30.27,SW,229,9.2,9.2,90,0.00,CLR,OVC,0.00,WeatherDisplay:10.37,2013-02-27 12:22:00,
2013-02-27 04:23:00,41.0,38.3,30.27,WSW,242,9.2,9.2,90,0.00,CLR,OVC,0.00,WeatherDisplay:10.37,2013-02-27 12:23:00,
2013-02-27 04:25:00,41.0,38.3,30.27,SW,227,4.6,4.7,90,0.00,CLR,OVC,0.00,WeatherDisplay:10.37,2013-02-27 12:25:00,
2013-02-27 04:26:00,41.0,38.3,30.27,SW,232,6.9,6.9,90,0.00,CLR,OVC,0.00,WeatherDisplay:10.37,2013-02-27 12:26:00,
2013-02-27 04:28:00,40.9,38.2,30.28,SW,225,6.9,6.9,90,0.00,CLR,OVC,0.00,WeatherDisplay:10.37,2013-02-27 12:28:00,
2013-02-27 04:30:00,41.0,38.3,30.28,WSW,242,6.9,6.9,90,0.00,CLR,OVC,0.00,WeatherDisplay:10.37,2013-02-27 12:30:00,
2013-02-27 04:31:00,41.0,38.3,30.28,SW,221,5.8,5.8,90,0.00,CLR,OVC,0.00,WeatherDisplay:10.37,2013-02-27 12:31:00,
2013-02-27 04:33:00,41.0,38.3,30.28,WSW,241,5.8,5.8,90,0.00,CLR,OVC,0.00,WeatherDisplay:10.37,2013-02-27 12:33:00,
2013-02-27 04:35:00,41.0,38.3,30.28,SW,233,6.9,6.9,90,0.00,CLR,OVC,0.00,WeatherDisplay:10.37,2013-02-27 12:35:00,
2013-02-27 04:36:00,41.0,38.3,30.28,SW,225,6.9,6.9,90,0.00,CLR,OVC,0.00,WeatherDisplay:10.37,2013-02-27 12:36:00,
2013-02-27 04:38:00,41.0,38.3,30.28,SW,224,6.9,6.9,90,0.00,CLR,OVC,0.00,WeatherDisplay:10.37,2013-02-27 12:38:00,
2013-02-27 04:40:00,41.0,38.3,30.28,SW,224,5.8,5.8,90,0.00,CLR,OVC,0.00,WeatherDisplay:10.37,2013-02-27 12:40:00,
2013-02-27 04:41:00,40.9,38.2,30.28,SW,224,4.6,4.6,90,0.00,CLR,OVC,0.00,WeatherDisplay:10.37,2013-02-27 12:41:00,
2013-02-27 04:43:00,40.9,38.2,30.28,SW,224,5.8,5.8,90,0.00,CLR,OVC,0.00,WeatherDisplay:10.37,2013-02-27 12:43:00,
2013-02-27 04:44:00,40.9,38.5,30.28,SSW,195,5.8,5.8,91,0.00,CLR,OVC,0.00,WeatherDisplay:10.37,2013-02-27 12:44:00,
2013-02-27 04:46:00,40.9,38.5,30.28,SW,227,6.9,6.9,91,0.00,CLR,OVC,0.00,WeatherDisplay:10.37,2013-02-27 12:46:00,
2013-02-27 04:48:00,40.9,38.2,30.28,SW,232,6.9,6.9,90,0.00,CLR,OVC,0.00,WeatherDisplay:10.37,2013-02-27 12:48:00,
2013-02-27 04:49:00,40.9,38.2,30.28,SW,229,4.6,4.6,90,0.00,CLR,OVC,0.00,WeatherDisplay:10.37,2013-02-27 12:49:00,
2013-02-27 04:51:00,40.9,38.2,30.28,SW,229,3.5,3.5,90,0.00,CLR,OVC,0.00,WeatherDisplay:10.37,2013-02-27 12:51:00,
2013-02-27 04:52:00,41.0,38.3,30.28,SW,229,3.5,3.5,90,0.00,CLR,OVC,0.00,WeatherDisplay:10.37,2013-02-27 12:52:00,
2013-02-27 04:53:00,40.9,38.2,30.28,SSW,197,3.5,3.5,90,0.00,CLR,OVC,0.00,WeatherDisplay:10.37,2013-02-27 12:53:00,
2013-02-27 04:54:00,40.9,38.2,30.28,SW,215,3.5,3.5,90,0.00,CLR,OVC,0.00,WeatherDisplay:10.37,2013-02-27 12:54:00,
2013-02-27 04:56:00,40.9,38.2,30.28,SW,227,4.0,4.1,90,0.00,CLR,OVC,0.00,WeatherDisplay:10.37,2013-02-27 12:56:00,
2013-02-27 04:57:00,41.0,38.3,30.28,SW,217,4.6,4.6,90,0.00,CLR,OVC,0.00,WeatherDisplay:10.37,2013-02-27 12:57:00,
2013-02-27 04:59:00,41.0,38.3,30.28,SW,217,3.5,3.5,90,0.00,CLR,OVC,0.00,WeatherDisplay:10.37,2013-02-27 12:59:00,
2013-02-27 05:02:00,41.1,38.4,30.28,SSW,205,3.5,3.5,90,0.00,CLR,OVC,0.00,WeatherDisplay:10.37,2013-02-27 13:02:00,
2013-02-27 05:04:00,41.0,38.3,30.28,South,186,3.5,3.5,90,0.00,CLR,OVC,0.00,WeatherDisplay:10.37,2013-02-27 13:04:00,
2013-02-27 05:05:00,41.0,38.3,30.28,SW,232,5.0,5.0,90,0.00,CLR,OVC,0.00,WeatherDisplay:10.37,2013-02-27 13:05:00,
2013-02-27 05:07:00,41.0,38.3,30.28,WSW,238,8.1,8.1,90,0.00,CLR,OVC,0.00,WeatherDisplay:10.37,2013-02-27 13:07:00,
2013-02-27 05:09:00,40.9,38.2,30.29,SW,223,5.0,5.0,90,0.00,CLR,OVC,0.00,WeatherDisplay:10.37,2013-02-27 13:09:00,
2013-02-27 05:10:00,40.9,38.2,30.29,SW,223,3.5,3.8,90,0.00,CLR,OVC,0.00,WeatherDisplay:10.37,2013-02-27 13:10:00,
2013-02-27 05:12:00,40.9,38.2,30.29,SW,223,4.6,4.6,90,0.00,CLR,OVC,0.00,WeatherDisplay:10.37,2013-02-27 13:12:00,
2013-02-27 05:13:00,40.9,38.2,30.29,SW,230,6.0,6.0,90,0.00,CLR,OVC,0.00,WeatherDisplay:10.37,2013-02-27 13:13:00,
2013-02-27 05:14:00,40.8,38.1,30.29,SSW,196,4.6,4.6,90,0.00,CLR,OVC,0.00,WeatherDisplay:10.37,2013-02-27 13:14:00,
2013-02-27 05:15:00,40.8,38.4,30.29,SSW,196,4.6,4.6,91,0.00,CLR,OVC,0.00,WeatherDisplay:10.37,2013-02-27 13:15:00,
2013-02-27 05:17:00,40.8,38.4,30.29,SW,227,5.0,5.0,91,0.00,CLR,OVC,0.00,WeatherDisplay:10.37,2013-02-27 13:17:00,
2013-02-27 05:18:00,40.8,38.4,30.29,SW,227,4.6,4.6,91,0.00,CLR,OVC,0.00,WeatherDisplay:10.37,2013-02-27 13:18:00,
2013-02-27 05:19:00,40.8,38.4,30.29,SSW,210,4.0,4.0,91,0.00,CLR,OVC,0.00,WeatherDisplay:10.37,2013-02-27 13:19:00,
2013-02-27 05:20:00,40.8,38.4,30.29,SSW,212,3.0,5.0,91,0.00,CLR,OVC,0.00,WeatherDisplay:10.37,2013-02-27 13:20:00,
2013-02-27 05:22:00,40.7,38.3,30.29,SSW,210,4.0,4.0,91,0.00,CLR,OVC,0.00,WeatherDisplay:10.37,2013-02-27 13:22:00,
2013-02-27 05:23:00,40.7,38.3,30.29,SSW,202,5.0,5.0,91,0.00,CLR,OVC,0.00,WeatherDisplay:10.37,2013-02-27 13:23:00,
2013-02-27 05:24:00,40.7,38.3,30.29,SSW,208,5.8,5.8,91,0.00,CLR,OVC,0.00,WeatherDisplay:10.37,2013-02-27 13:24:00,
2013-02-27 05:25:00,40.7,38.3,30.29,SSW,208,5.8,5.8,91,0.00,CLR,OVC,0.00,WeatherDisplay:10.37,2013-02-27 13:25:00,
2013-02-27 05:27:00,40.6,38.2,30.29,SSW,195,5.0,5.0,91,0.00,CLR,OVC,0.00,WeatherDisplay:10.37,2013-02-27 13:27:00,
2013-02-27 05:28:00,40.7,38.3,30.29,SW,226,6.0,6.0,91,0.00,CLR,OVC,0.00,WeatherDisplay:10.37,2013-02-27 13:28:00,
2013-02-27 05:29:00,40.7,38.3,30.29,SW,219,6.9,6.9,91,0.00,CLR,OVC,0.00,WeatherDisplay:10.37,2013-02-27 13:29:00,
2013-02-27 05:30:00,40.6,38.2,30.29,SW,219,6.9,6.9,91,0.00,CLR,OVC,0.00,WeatherDisplay:10.37,2013-02-27 13:30:00,
2013-02-27 05:33:00,40.6,38.2,30.29,SW,216,4.6,4.6,91,0.00,CLR,OVC,0.00,WeatherDisplay:10.37,2013-02-27 13:33:00,
2013-02-27 05:34:00,40.6,38.2,30.29,SW,216,5.8,5.8,91,0.00,CLR,OVC,0.00,WeatherDisplay:10.37,2013-02-27 13:34:00,
2013-02-27 05:35:00,40.6,38.2,30.29,SW,215,5.0,7.0,91,0.00,CLR,OVC,0.00,WeatherDisplay:10.37,2013-02-27 13:35:00,
2013-02-27 05:38:00,40.6,38.2,30.30,SW,221,6.9,6.9,91,0.00,CLR,OVC,0.00,WeatherDisplay:10.37,2013-02-27 13:38:00,
2013-02-27 05:39:00,40.6,38.2,30.30,SW,221,6.9,6.9,91,0.00,CLR,OVC,0.00,WeatherDisplay:10.37,2013-02-27 13:39:00,
2013-02-27 05:40:00,40.6,38.2,30.30,SW,219,5.8,5.8,91,0.00,CLR,OVC,0.00,WeatherDisplay:10.37,2013-02-27 13:40:00,
2013-02-27 05:43:00,40.6,38.2,30.30,SW,219,5.8,5.8,91,0.00,CLR,OVC,0.00,WeatherDisplay:10.37,2013-02-27 13:43:00,
2013-02-27 05:44:00,40.6,38.2,30.30,SW,220,5.8,5.8,91,0.00,CLR,OVC,0.00,WeatherDisplay:10.37,2013-02-27 13:44:00,
2013-02-27 05:45:00,40.6,38.2,30.30,SW,221,7.0,7.0,91,0.00,CLR,OVC,0.00,WeatherDisplay:10.37,2013-02-27 13:45:00,
2013-02-27 05:48:00,40.7,38.3,30.30,SW,226,4.0,4.0,91,0.00,CLR,OVC,0.00,WeatherDisplay:10.37,2013-02-27 13:48:00,
2013-02-27 05:49:00,40.7,38.3,30.30,SW,226,5.0,5.0,91,0.00,CLR,OVC,0.00,WeatherDisplay:10.37,2013-02-27 13:49:00,
2013-02-27 05:50:00,40.7,38.3,30.30,SW,227,6.9,6.9,91,0.00,CLR,OVC,0.00,WeatherDisplay:10.37,2013-02-27 13:50:00,
2013-02-27 05:54:00,40.7,38.3,30.30,SW,227,5.0,5.0,91,0.00,CLR,OVC,0.00,WeatherDisplay:10.37,2013-02-27 13:54:00,
2013-02-27 05:55:00,40.7,38.3,30.30,SW,219,5.8,5.8,91,0.00,CLR,OVC,0.00,WeatherDisplay:10.37,2013-02-27 13:55:00,
2013-02-27 05:59:00,40.7,38.3,30.30,SW,223,9.2,9.2,91,0.00,CLR,OVC,0.00,WeatherDisplay:10.37,2013-02-27 13:59:00,
2013-02-27 06:00:00,40.8,38.4,30.30,SW,222,5.8,5.8,91,0.00,CLR,OVC,0.00,WeatherDisplay:10.37,2013-02-27 14:00:00,
2013-02-27 06:04:00,40.8,38.4,30.30,SW,227,6.0,6.0,91,0.00,CLR,OVC,0.00,WeatherDisplay:10.37,2013-02-27 14:04:00,
2013-02-27 06:05:00,40.8,38.4,30.31,SW,231,6.9,6.9,91,0.00,CLR,OVC,0.00,WeatherDisplay:10.37,2013-02-27 14:05:00,
2013-02-27 06:09:00,40.8,38.4,30.31,SW,227,4.6,4.6,91,0.00,CLR,OVC,0.00,WeatherDisplay:10.37,2013-02-27 14:09:00,
2013-02-27 06:10:00,40.8,38.4,30.31,SSW,211,5.8,5.8,91,0.00,CLR,OVC,0.00,WeatherDisplay:10.37,2013-02-27 14:10:00,
2013-02-27 06:14:00,40.7,38.3,30.31,SSW,196,4.6,4.6,91,0.00,CLR,OVC,0.00,WeatherDisplay:10.37,2013-02-27 14:14:00,
2013-02-27 06:15:00,40.7,38.3,30.31,SSW,202,4.6,4.6,91,0.00,CLR,OVC,0.00,WeatherDisplay:10.37,2013-02-27 14:15:00,
2013-02-27 06:19:00,40.6,38.2,30.31,SSW,209,5.8,5.8,91,0.00,CLR,OVC,0.00,WeatherDisplay:10.37,2013-02-27 14:19:00,
2013-02-27 06:20:00,40.6,38.2,30.31,SSW,209,4.6,4.6,91,0.00,CLR,OVC,0.00,WeatherDisplay:10.37,2013-02-27 14:20:00,
2013-02-27 06:21:00,40.6,38.2,30.31,SSW,209,4.6,4.6,91,0.00,CLR,OVC,0.00,WeatherDisplay:10.37,2013-02-27 14:21:00,
2013-02-27 06:24:00,40.6,38.5,30.31,SW,225,3.5,3.5,92,0.00,CLR,OVC,0.00,WeatherDisplay:10.37,2013-02-27 14:24:00,
2013-02-27 06:25:00,40.6,38.5,30.31,SW,221,3.5,3.5,92,0.00,CLR,OVC,0.00,WeatherDisplay:10.37,2013-02-27 14:25:00,
2013-02-27 06:26:00,40.6,38.5,30.31,SW,221,3.5,3.5,92,0.00,CLR,OVC,0.00,WeatherDisplay:10.37,2013-02-27 14:26:00,
2013-02-27 06:29:00,40.5,38.4,30.31,SW,219,4.0,4.0,92,0.00,CLR,OVC,0.00,WeatherDisplay:10.37,2013-02-27 14:29:00,
2013-02-27 06:30:00,40.5,38.4,30.31,SW,225,4.6,4.6,92,0.00,CLR,OVC,0.00,WeatherDisplay:10.37,2013-02-27 14:30:00,
2013-02-27 06:31:00,40.5,38.4,30.31,SW,225,4.6,4.6,92,0.00,CLR,OVC,0.00,WeatherDisplay:10.37,2013-02-27 14:31:00,
2013-02-27 06:34:00,40.4,38.3,30.31,SW,219,3.5,3.5,92,0.00,CLR,OVC,0.00,WeatherDisplay:10.37,2013-02-27 14:34:00,
2013-02-27 06:35:00,40.4,38.3,30.31,SW,219,3.5,3.5,92,0.00,CLR,OVC,0.00,WeatherDisplay:10.37,2013-02-27 14:35:00,
2013-02-27 06:36:00,40.4,38.3,30.31,SW,219,3.5,3.5,92,0.00,CLR,OVC,0.00,WeatherDisplay:10.37,2013-02-27 14:36:00,
2013-02-27 06:39:00,40.4,38.3,30.31,SW,217,5.0,5.0,92,0.00,CLR,OVC,0.00,WeatherDisplay:10.37,2013-02-27 14:39:00,
2013-02-27 06:40:00,40.4,38.3,30.31,SW,217,5.0,5.0,92,0.00,CLR,OVC,0.00,WeatherDisplay:10.37,2013-02-27 14:40:00,
2013-02-27 06:41:00,40.4,38.3,30.31,SW,235,5.8,5.8,92,0.00,CLR,OVC,0.00,WeatherDisplay:10.37,2013-02-27 14:41:00,
2013-02-27 06:45:00,40.4,38.3,30.31,South,186,4.6,4.6,92,0.00,CLR,OVC,0.00,WeatherDisplay:10.37,2013-02-27 14:45:00,
2013-02-27 06:47:00,40.3,38.2,30.31,SSW,195,5.0,5.0,92,0.00,CLR,OVC,0.00,WeatherDisplay:10.37,2013-02-27 14:47:00,
2013-02-27 06:50:00,40.4,38.3,30.31,SSW,211,6.9,6.9,92,0.00,CLR,OVC,0.00,WeatherDisplay:10.37,2013-02-27 14:50:00,
2013-02-27 06:53:00,40.4,38.3,30.31,SW,215,5.8,5.8,92,0.00,CLR,OVC,0.00,WeatherDisplay:10.37,2013-02-27 14:53:00,
2013-02-27 06:55:00,40.4,38.3,30.31,SSW,210,3.5,3.5,92,0.00,CLR,OVC,0.00,WeatherDisplay:10.37,2013-02-27 14:55:00,
2013-02-27 06:56:00,40.4,38.3,30.31,SSW,209,3.5,3.5,92,0.00,CLR,OVC,0.00,WeatherDisplay:10.37,2013-02-27 14:56:00,
2013-02-27 06:58:00,40.5,38.4,30.31,SW,214,3.5,3.7,92,0.00,CLR,OVC,0.00,WeatherDisplay:10.37,2013-02-27 14:58:00,
2013-02-27 07:00:00,40.5,38.4,30.31,SSW,210,5.0,6.0,92,0.00,CLR,OVC,0.00,WeatherDisplay:10.37,2013-02-27 15:00:00,
2013-02-27 07:02:00,40.5,38.4,30.31,SSW,203,5.8,5.8,92,0.00,CLR,OVC,0.00,WeatherDisplay:10.37,2013-02-27 15:02:00,
2013-02-27 07:03:00,40.6,38.5,30.31,SSW,192,6.0,6.0,92,0.00,CLR,OVC,0.00,WeatherDisplay:10.37,2013-02-27 15:03:00,
2013-02-27 07:05:00,40.6,38.5,30.31,SW,222,6.9,6.9,92,0.00,CLR,OVC,0.00,WeatherDisplay:10.37,2013-02-27 15:05:00,
2013-02-27 07:07:00,40.6,38.2,30.31,SSW,211,5.0,5.0,91,0.00,CLR,OVC,0.00,WeatherDisplay:10.37,2013-02-27 15:07:00,
2013-02-27 07:08:00,40.6,38.2,30.31,South,188,5.8,5.8,91,0.00,CLR,OVC,0.00,WeatherDisplay:10.37,2013-02-27 15:08:00,
2013-02-27 07:10:00,40.6,38.5,30.31,South,190,4.0,4.0,92,0.00,CLR,OVC,0.00,WeatherDisplay:10.37,2013-02-27 15:10:00,
2013-02-27 07:12:00,40.6,38.5,30.31,SSW,194,4.6,4.6,92,0.00,CLR,OVC,0.00,WeatherDisplay:10.37,2013-02-27 15:12:00,
2013-02-27 07:14:00,40.6,38.2,30.31,South,189,7.0,7.0,91,0.00,CLR,OVC,0.00,WeatherDisplay:10.37,2013-02-27 15:14:00,
2013-02-27 07:15:00,40.6,38.2,30.30,SSW,207,8.1,8.1,91,0.00,CLR,OVC,0.00,WeatherDisplay:10.37,2013-02-27 15:15:00,
2013-02-27 07:17:00,40.7,38.3,30.31,SW,215,10.4,10.4,91,0.00,CLR,OVC,0.00,WeatherDisplay:10.37,2013-02-27 15:17:00,
2013-02-27 07:19:00,40.7,38.3,30.31,SSW,213,6.0,6.0,91,0.00,CLR,OVC,0.00,WeatherDisplay:10.37,2013-02-27 15:19:00,
2013-02-27 07:20:00,40.7,38.3,30.31,SW,224,8.1,8.1,91,0.00,CLR,OVC,0.00,WeatherDisplay:10.37,2013-02-27 15:20:00,
2013-02-27 07:23:00,40.7,38.3,30.31,SSW,207,5.8,5.8,91,0.00,CLR,OVC,0.00,WeatherDisplay:10.37,2013-02-27 15:23:00,
2013-02-27 07:24:00,40.6,38.2,30.31,SW,221,5.8,5.8,91,0.00,CLR,OVC,0.00,WeatherDisplay:10.37,2013-02-27 15:24:00,
2013-02-27 07:25:00,40.6,38.2,30.31,SSW,196,7.0,7.0,91,0.00,CLR,OVC,0.00,WeatherDisplay:10.37,2013-02-27 15:25:00,
2013-02-27 07:26:00,40.6,38.2,30.31,SSW,212,8.1,8.1,91,0.00,CLR,OVC,0.00,WeatherDisplay:10.37,2013-02-27 15:26:00,
2013-02-27 07:28:00,40.6,38.2,30.31,SSW,211,8.1,8.1,91,0.00,CLR,OVC,0.00,WeatherDisplay:10.37,2013-02-27 15:28:00,
2013-02-27 07:29:00,40.7,38.3,30.31,SSW,196,7.0,7.0,91,0.00,CLR,OVC,0.00,WeatherDisplay:10.37,2013-02-27 15:29:00,
2013-02-27 07:30:00,40.6,38.2,30.31,SW,221,9.2,9.2,91,0.00,CLR,OVC,0.00,WeatherDisplay:10.37,2013-02-27 15:30:00,
2013-02-27 07:31:00,40.7,38.3,30.31,SW,221,7.0,7.0,91,0.00,CLR,OVC,0.00,WeatherDisplay:10.37,2013-02-27 15:31:00,
2013-02-27 07:33:00,40.6,38.2,30.31,SW,217,8.1,8.1,91,0.00,CLR,OVC,0.00,WeatherDisplay:10.37,2013-02-27 15:33:00,
2013-02-27 07:35:00,40.6,38.2,30.31,SSW,209,5.8,5.8,91,0.00,CLR,OVC,0.00,WeatherDisplay:10.37,2013-02-27 15:35:00,
2013-02-27 07:36:00,40.6,38.2,30.31,SW,235,5.8,5.8,91,0.00,CLR,OVC,0.00,WeatherDisplay:10.37,2013-02-27 15:36:00,
2013-02-27 07:38:00,40.6,38.5,30.31,SW,222,5.8,5.8,92,0.00,CLR,OVC,0.00,WeatherDisplay:10.37,2013-02-27 15:38:00,
2013-02-27 07:40:00,40.6,38.5,30.31,SSE,163,5.8,5.8,92,0.00,CLR,OVC,0.00,WeatherDisplay:10.37,2013-02-27 15:40:00,
2013-02-27 07:41:00,40.6,38.5,30.31,SSW,205,5.8,5.8,92,0.00,CLR,OVC,0.00,WeatherDisplay:10.37,2013-02-27 15:41:00,
2013-02-27 07:43:00,40.5,38.4,30.31,SSW,209,4.6,4.6,92,0.00,CLR,OVC,0.00,WeatherDisplay:10.37,2013-02-27 15:43:00,
2013-02-27 07:45:00,40.5,38.4,30.31,SSW,209,5.8,5.8,92,0.00,CLR,OVC,0.00,WeatherDisplay:10.37,2013-02-27 15:45:00,
2013-02-27 07:46:00,40.5,38.4,30.31,SW,215,6.9,6.9,92,0.00,CLR,OVC,0.00,WeatherDisplay:10.37,2013-02-27 15:46:00,
2013-02-27 07:49:00,40.5,38.4,30.31,SW,221,3.5,3.5,92,0.00,CLR,OVC,0.00,WeatherDisplay:10.37,2013-02-27 15:49:00,
2013-02-27 07:50:00,40.5,38.4,30.31,SW,221,3.5,3.9,92,0.00,CLR,OVC,0.00,WeatherDisplay:10.37,2013-02-27 15:50:00,
2013-02-27 07:51:00,40.5,38.4,30.31,SW,222,6.0,6.0,92,0.00,CLR,OVC,0.00,WeatherDisplay:10.37,2013-02-27 15:51:00,
2013-02-27 07:52:00,40.5,38.4,30.31,SW,222,4.0,4.0,92,0.00,CLR,OVC,0.00,WeatherDisplay:10.37,2013-02-27 15:52:00,
2013-02-27 07:54:00,40.5,38.4,30.31,SW,223,4.6,4.6,92,0.00,CLR,OVC,0.00,WeatherDisplay:10.37,2013-02-27 15:54:00,
2013-02-27 07:55:00,40.5,38.4,30.31,SW,223,5.0,5.0,92,0.00,CLR,OVC,0.00,WeatherDisplay:10.37,2013-02-27 15:55:00,
2013-02-27 07:56:00,40.5,38.4,30.31,SW,222,4.6,4.6,92,0.00,CLR,OVC,0.00,WeatherDisplay:10.37,2013-02-27 15:56:00,
2013-02-27 07:57:00,40.5,38.4,30.31,SW,223,4.6,4.6,92,0.00,CLR,OVC,0.00,WeatherDisplay:10.37,2013-02-27 15:57:00,
2013-02-27 08:00:00,40.5,38.4,30.32,SW,221,4.6,4.6,92,0.00,CLR,OVC,0.00,WeatherDisplay:10.37,2013-02-27 16:00:00,
2013-02-27 08:01:00,40.5,38.4,30.32,SW,221,3.5,3.5,92,0.00,CLR,OVC,0.00,WeatherDisplay:10.37,2013-02-27 16:01:00,
2013-02-27 08:02:00,40.5,38.6,30.31,SW,221,3.5,3.5,93,0.00,CLR,OVC,0.00,WeatherDisplay:10.37,2013-02-27 16:02:00,
2013-02-27 08:05:00,40.5,38.6,30.31,South,173,5.8,5.8,93,0.00,CLR,OVC,0.00,WeatherDisplay:10.37,2013-02-27 16:05:00,
2013-02-27 08:06:00,40.5,38.6,30.31,SSW,205,6.9,6.9,93,0.00,CLR,OVC,0.00,WeatherDisplay:10.37,2013-02-27 16:06:00,
2013-02-27 08:07:00,40.5,38.6,30.31,SSW,207,5.8,5.8,93,0.00,CLR,OVC,0.00,WeatherDisplay:10.37,2013-02-27 16:07:00,
2013-02-27 08:10:00,40.4,38.5,30.31,SW,219,5.0,5.0,93,0.00,CLR,OVC,0.00,WeatherDisplay:10.37,2013-02-27 16:10:00,
2013-02-27 08:11:00,40.4,38.5,30.31,SW,221,4.6,4.6,93,0.00,CLR,OVC,0.00,WeatherDisplay:10.37,2013-02-27 16:11:00,
2013-02-27 08:12:00,40.4,38.5,30.31,SSW,209,4.6,4.6,93,0.00,CLR,OVC,0.00,WeatherDisplay:10.37,2013-02-27 16:12:00,
2013-02-27 08:15:00,40.3,38.4,30.31,SW,225,4.6,4.6,93,0.00,CLR,OVC,0.00,WeatherDisplay:10.37,2013-02-27 16:15:00,
2013-02-27 08:16:00,40.3,38.7,30.31,SSW,204,5.8,5.8,94,0.00,CLR,OVC,0.00,WeatherDisplay:10.37,2013-02-27 16:16:00,
2013-02-27 08:17:00,40.3,38.7,30.31,SSW,204,4.6,4.6,94,0.00,CLR,OVC,0.00,WeatherDisplay:10.37,2013-02-27 16:17:00,
2013-02-27 08:21:00,40.2,38.6,30.31,South,184,6.9,6.9,94,0.00,CLR,OVC,0.00,WeatherDisplay:10.37,2013-02-27 16:21:00,
2013-02-27 08:22:00,40.2,38.6,30.31,SSE,167,5.8,5.8,94,0.00,CLR,OVC,0.00,WeatherDisplay:10.37,2013-02-27 16:22:00,
2013-02-27 08:23:00,40.2,38.6,30.31,SSE,163,8.0,8.0,94,0.00,CLR,OVC,0.00,WeatherDisplay:10.37,2013-02-27 16:23:00,
2013-02-27 08:26:00,40.2,38.6,30.31,SSW,199,5.8,5.8,94,0.00,CLR,OVC,0.00,WeatherDisplay:10.37,2013-02-27 16:26:00,
2013-02-27 08:27:00,40.2,38.6,30.31,WSW,239,5.0,5.0,94,0.00,CLR,OVC,0.00,WeatherDisplay:10.37,2013-02-27 16:27:00,
2013-02-27 08:28:00,40.2,38.9,30.31,SSW,212,4.6,4.6,95,0.00,CLR,OVC,0.00,WeatherDisplay:10.37,2013-02-27 16:28:00,
2013-02-27 08:31:00,40.1,38.5,30.31,SSW,201,5.8,5.8,94,0.00,CLR,OVC,0.00,WeatherDisplay:10.37,2013-02-27 16:31:00,
2013-02-27 08:32:00,40.1,38.5,30.31,SSW,200,4.6,5.2,94,0.00,CLR,OVC,0.00,WeatherDisplay:10.37,2013-02-27 16:32:00,
2013-02-27 08:33:00,40.1,38.8,30.31,SSE,157,4.6,4.6,95,0.00,CLR,OVC,0.00,WeatherDisplay:10.37,2013-02-27 16:33:00,
2013-02-27 08:36:00,40.1,38.8,30.31,SSE,168,4.6,4.6,95,0.00,CLR,OVC,0.00,WeatherDisplay:10.37,2013-02-27 16:36:00,
2013-02-27 08:37:00,40.1,38.8,30.31,SSW,196,4.6,4.6,95,0.00,CLR,OVC,0.00,WeatherDisplay:10.37,2013-02-27 16:37:00,
2013-02-27 08:38:00,40.2,38.9,30.31,SSW,209,7.0,7.0,95,0.00,CLR,OVC,0.00,WeatherDisplay:10.37,2013-02-27 16:38:00,
2013-02-27 08:41:00,40.1,38.8,30.31,SSE,162,8.0,8.0,95,0.00,CLR,OVC,0.00,WeatherDisplay:10.37,2013-02-27 16:41:00,
2013-02-27 08:42:00,40.1,39.1,30.31,SE,144,8.1,8.1,96,0.00,CLR,OVC,0.00,WeatherDisplay:10.37,2013-02-27 16:42:00,
2013-02-27 08:43:00,40.1,39.1,30.31,SSE,153,6.9,6.9,96,0.00,CLR,OVC,0.00,WeatherDisplay:10.37,2013-02-27 16:43:00,
2013-02-27 08:46:00,40.1,39.1,30.31,SSW,204,5.8,5.8,96,0.00,CLR,OVC,0.00,WeatherDisplay:10.37,2013-02-27 16:46:00,
2013-02-27 08:47:00,40.0,39.0,30.31,SW,224,6.0,6.0,96,0.00,CLR,OVC,0.00,WeatherDisplay:10.37,2013-02-27 16:47:00,
2013-02-27 08:48:00,40.1,39.1,30.31,SW,223,5.8,5.8,96,0.00,CLR,OVC,0.00,WeatherDisplay:10.37,2013-02-27 16:48:00,
2013-02-27 08:51:00,40.1,39.3,30.31,SSW,192,5.8,5.8,97,0.00,CLR,OVC,0.00,WeatherDisplay:10.37,2013-02-27 16:51:00,
2013-02-27 08:52:00,40.1,39.3,30.31,SW,221,6.0,6.0,97,0.00,CLR,OVC,0.00,WeatherDisplay:10.37,2013-02-27 16:52:00,
2013-02-27 08:53:00,40.1,39.3,30.31,SW,216,9.2,9.2,97,0.00,CLR,OVC,0.00,WeatherDisplay:10.37,2013-02-27 16:53:00,
2013-02-27 08:56:00,40.1,39.3,30.31,SSE,163,6.0,6.0,97,0.00,CLR,OVC,0.00,WeatherDisplay:10.37,2013-02-27 16:56:00,
2013-02-27 08:57:00,40.0,39.2,30.31,SW,221,10.4,10.4,97,0.00,CLR,OVC,0.00,WeatherDisplay:10.37,2013-02-27 16:57:00,
2013-02-27 08:58:00,40.0,39.2,30.31,SW,221,10.4,10.4,97,0.00,CLR,OVC,0.00,WeatherDisplay:10.37,2013-02-27 16:58:00,
2013-02-27 09:02:00,40.0,39.2,30.31,SW,216,9.0,9.0,97,0.00,CLR,OVC,0.00,WeatherDisplay:10.37,2013-02-27 17:02:00,
2013-02-27 09:03:00,40.0,39.2,30.31,SSW,204,12.7,12.7,97,0.00,CLR,OVC,0.00,WeatherDisplay:10.37,2013-02-27 17:03:00,
2013-02-27 09:07:00,40.0,39.2,30.31,SW,221,8.0,8.0,97,0.00,CLR,OVC,0.00,WeatherDisplay:10.37,2013-02-27 17:07:00,
2013-02-27 09:08:00,40.0,39.2,30.31,WSW,238,10.4,10.4,97,0.00,CLR,OVC,0.00,WeatherDisplay:10.37,2013-02-27 17:08:00,
2013-02-27 09:12:00,40.0,39.2,30.31,SSW,209,9.0,9.0,97,0.00,CLR,OVC,0.00,WeatherDisplay:10.37,2013-02-27 17:12:00,
2013-02-27 09:13:00,40.0,39.2,30.30,SW,217,10.4,10.4,97,0.00,CLR,OVC,0.00,WeatherDisplay:10.37,2013-02-27 17:13:00,
2013-02-27 09:14:00,40.0,39.2,30.30,SSW,213,10.4,10.4,97,0.00,CLR,OVC,0.00,WeatherDisplay:10.37,2013-02-27 17:14:00,
2013-02-27 09:17:00,40.0,39.5,30.30,SSW,211,5.8,6.4,98,0.00,CLR,OVC,0.00,WeatherDisplay:10.37,2013-02-27 17:17:00,
2013-02-27 09:18:00,40.0,39.5,30.30,SSW,205,10.4,10.4,98,0.00,CLR,OVC,0.00,WeatherDisplay:10.37,2013-02-27 17:18:00,
2013-02-27 09:19:00,40.0,39.5,30.30,SW,218,10.4,10.4,98,0.00,CLR,OVC,0.00,WeatherDisplay:10.37,2013-02-27 17:19:00,
2013-02-27 09:22:00,40.0,39.5,30.30,SSW,213,9.2,9.2,98,0.00,CLR,OVC,0.00,WeatherDisplay:10.37,2013-02-27 17:22:00,
2013-02-27 09:23:00,40.0,39.5,30.30,SW,219,6.9,7.0,98,0.00,CLR,OVC,0.00,WeatherDisplay:10.37,2013-02-27 17:23:00,
2013-02-27 09:24:00,40.1,39.6,30.30,SW,215,9.2,9.2,98,0.00,CLR,OVC,0.00,WeatherDisplay:10.37,2013-02-27 17:24:00,
2013-02-27 09:27:00,40.2,39.7,30.30,SW,225,9.2,9.2,98,0.00,CLR,OVC,0.00,WeatherDisplay:10.37,2013-02-27 17:27:00,
2013-02-27 09:28:00,40.2,39.7,30.30,SW,216,11.5,11.5,98,0.00,CLR,OVC,0.00,WeatherDisplay:10.37,2013-02-27 17:28:00,
2013-02-27 09:29:00,40.3,39.8,30.30,SSW,203,8.1,8.1,98,0.00,CLR,OVC,0.00,WeatherDisplay:10.37,2013-02-27 17:29:00,
2013-02-27 09:32:00,40.5,40.0,30.30,SSW,210,8.1,8.1,98,0.00,CLR,OVC,0.00,WeatherDisplay:10.37,2013-02-27 17:32:00,
2013-02-27 09:33:00,40.6,40.1,30.30,SW,227,8.1,8.1,98,0.00,CLR,OVC,0.00,WeatherDisplay:10.37,2013-02-27 17:33:00,
2013-02-27 09:34:00,40.7,40.2,30.30,South,189,6.9,6.9,98,0.00,CLR,OVC,0.00,WeatherDisplay:10.37,2013-02-27 17:34:00,
2013-02-27 09:37:00,41.0,40.5,30.30,SW,229,8.1,8.1,98,0.00,CLR,OVC,0.00,WeatherDisplay:10.37,2013-02-27 17:37:00,
2013-02-27 09:38:00,41.1,40.6,30.30,SW,222,6.9,6.9,98,0.00,CLR,OVC,0.00,WeatherDisplay:10.37,2013-02-27 17:38:00,
2013-02-27 09:39:00,41.1,40.6,30.30,South,173,8.1,8.1,98,0.00,CLR,OVC,0.00,WeatherDisplay:10.37,2013-02-27 17:39:00,
2013-02-27 09:42:00,41.3,40.5,30.30,WSW,244,9.2,9.2,97,0.00,CLR,OVC,0.00,WeatherDisplay:10.37,2013-02-27 17:42:00,
2013-02-27 09:43:00,41.4,40.6,30.30,SW,219,8.1,8.1,97,0.00,CLR,OVC,0.00,WeatherDisplay:10.37,2013-02-27 17:43:00,
2013-02-27 09:44:00,41.5,40.7,30.30,SW,229,11.0,11.0,97,0.00,CLR,OVC,0.00,WeatherDisplay:10.37,2013-02-27 17:44:00,
2013-02-27 09:47:00,41.6,40.5,30.30,SW,233,10.4,10.4,96,0.00,CLR,OVC,0.00,WeatherDisplay:10.37,2013-02-27 17:47:00,
2013-02-27 09:48:00,41.7,40.6,30.30,South,177,11.5,11.5,96,0.00,CLR,OVC,0.00,WeatherDisplay:10.37,2013-02-27 17:48:00,
2013-02-27 09:49:00,41.8,40.7,30.30,SSW,210,11.5,11.5,96,0.00,CLR,OVC,0.00,WeatherDisplay:10.37,2013-02-27 17:49:00,
2013-02-27 09:52:00,42.0,40.9,30.29,SW,215,10.0,10.0,96,0.00,CLR,OVC,0.00,WeatherDisplay:10.37,2013-02-27 17:52:00,
2013-02-27 09:54:00,42.0,40.7,30.29,SSW,202,11.5,11.5,95,0.00,CLR,OVC,0.00,WeatherDisplay:10.37,2013-02-27 17:54:00,
2013-02-27 09:55:00,42.1,40.8,30.29,SSE,148,9.2,9.8,95,0.00,CLR,OVC,0.00,WeatherDisplay:10.37,2013-02-27 17:55:00,
2013-02-27 09:57:00,42.3,41.0,30.29,SW,215,15.0,15.0,95,0.00,CLR,OVC,0.00,WeatherDisplay:10.37,2013-02-27 17:57:00,
2013-02-27 09:59:00,42.4,40.8,30.29,SW,218,11.5,11.5,94,0.00,CLR,OVC,0.00,WeatherDisplay:10.37,2013-02-27 17:59:00,
2013-02-27 10:00:00,42.5,40.9,30.29,SW,221,12.0,12.0,94,0.00,CLR,OVC,0.00,WeatherDisplay:10.37,2013-02-27 18:00:00,
2013-02-27 10:03:00,42.7,41.1,30.29,SW,224,15.0,15.0,94,0.00,CLR,OVC,0.00,WeatherDisplay:10.37,2013-02-27 18:03:00,
2013-02-27 10:04:00,42.8,41.2,30.29,SSW,209,13.8,13.8,94,0.00,CLR,OVC,0.00,WeatherDisplay:10.37,2013-02-27 18:04:00,
2013-02-27 10:05:00,42.8,40.9,30.29,SSW,207,13.8,13.8,93,0.00,CLR,OVC,0.00,WeatherDisplay:10.37,2013-02-27 18:05:00,
2013-02-27 10:08:00,42.8,41.2,30.29,SW,221,12.7,12.7,94,0.00,CLR,OVC,0.00,WeatherDisplay:10.37,2013-02-27 18:08:00,
2013-02-27 10:09:00,42.9,41.3,30.29,South,188,11.5,11.5,94,0.00,CLR,OVC,0.00,WeatherDisplay:10.37,2013-02-27 18:09:00,
2013-02-27 10:10:00,43.0,41.1,30.29,South,177,11.5,11.5,93,0.00,CLR,OVC,0.00,WeatherDisplay:10.37,2013-02-27 18:10:00,
2013-02-27 10:11:00,43.0,41.1,30.29,South,174,11.5,11.5,93,0.00,CLR,OVC,0.00,WeatherDisplay:10.37,2013-02-27 18:11:00,
2013-02-27 10:13:00,42.9,41.0,30.29,SSW,194,10.4,10.4,93,0.00,CLR,OVC,0.00,WeatherDisplay:10.37,2013-02-27 18:13:00,
2013-02-27 10:14:00,43.0,41.1,30.29,SSW,200,9.2,9.2,93,0.00,CLR,OVC,0.00,WeatherDisplay:10.37,2013-02-27 18:14:00,
2013-02-27 10:15:00,43.0,41.1,30.29,SSW,211,11.5,11.5,93,0.00,CLR,OVC,0.00,WeatherDisplay:10.37,2013-02-27 18:15:00,
2013-02-27 10:16:00,43.0,41.1,30.29,SSW,207,11.5,11.5,93,0.00,CLR,OVC,0.00,WeatherDisplay:10.37,2013-02-27 18:16:00,
2013-02-27 10:18:00,43.0,40.6,30.28,SW,215,17.3,17.3,91,0.00,CLR,OVC,0.00,WeatherDisplay:10.37,2013-02-27 18:18:00,
2013-02-27 10:19:00,42.9,40.5,30.28,SSW,200,15.0,15.0,91,0.00,CLR,OVC,0.00,WeatherDisplay:10.37,2013-02-27 18:19:00,
2013-02-27 10:20:00,42.8,40.4,30.28,SW,226,13.8,13.8,91,0.00,CLR,OVC,0.00,WeatherDisplay:10.37,2013-02-27 18:20:00,
2013-02-27 10:21:00,42.8,40.4,30.28,SW,225,15.0,15.0,91,0.00,CLR,OVC,0.00,WeatherDisplay:10.37,2013-02-27 18:21:00,
2013-02-27 10:23:00,42.8,40.6,30.28,SSW,207,10.4,10.4,92,0.00,CLR,OVC,0.00,WeatherDisplay:10.37,2013-02-27 18:23:00,
2013-02-27 10:24:00,42.8,40.6,30.29,SW,214,13.8,13.8,92,0.00,CLR,OVC,0.00,WeatherDisplay:10.37,2013-02-27 18:24:00,
2013-02-27 10:26:00,42.8,40.4,30.29,SSW,209,13.8,13.8,91,0.00,CLR,OVC,0.00,WeatherDisplay:10.37,2013-02-27 18:26:00,
2013-02-27 10:29:00,42.8,40.4,30.28,SSW,206,11.5,11.5,91,0.00,CLR,OVC,0.00,WeatherDisplay:10.37,2013-02-27 18:29:00,
2013-02-27 10:30:00,42.8,40.4,30.28,SSW,212,11.5,11.5,91,0.00,CLR,OVC,0.00,WeatherDisplay:10.37,2013-02-27 18:30:00,
2013-02-27 10:31:00,42.9,40.5,30.29,SW,229,15.0,15.0,91,0.00,CLR,OVC,0.00,WeatherDisplay:10.37,2013-02-27 18:31:00,
2013-02-27 10:34:00,43.0,40.6,30.29,SSW,197,13.8,13.8,91,0.00,CLR,OVC,0.00,WeatherDisplay:10.37,2013-02-27 18:34:00,
2013-02-27 10:35:00,43.0,40.6,30.29,SSW,197,13.8,13.8,91,0.00,CLR,OVC,0.00,WeatherDisplay:10.37,2013-02-27 18:35:00,
2013-02-27 10:36:00,43.1,40.7,30.29,SW,220,12.7,12.7,91,0.00,CLR,OVC,0.00,WeatherDisplay:10.37,2013-02-27 18:36:00,
2013-02-27 10:39:00,43.1,40.7,30.29,SSW,205,11.5,11.5,91,0.00,CLR,OVC,0.00,WeatherDisplay:10.37,2013-02-27 18:39:00,
2013-02-27 10:40:00,43.1,40.7,30.29,SSW,211,9.0,14.0,91,0.00,CLR,OVC,0.00,WeatherDisplay:10.37,2013-02-27 18:40:00,
2013-02-27 10:41:00,43.1,40.4,30.29,SW,216,11.5,11.5,90,0.00,CLR,OVC,0.00,WeatherDisplay:10.37,2013-02-27 18:41:00,
2013-02-27 10:44:00,43.2,40.8,30.30,SSW,198,12.0,12.0,91,0.00,CLR,OVC,0.00,WeatherDisplay:10.37,2013-02-27 18:44:00,
2013-02-27 10:45:00,43.2,40.5,30.30,SW,224,11.5,11.5,90,0.00,CLR,OVC,0.00,WeatherDisplay:10.37,2013-02-27 18:45:00,
2013-02-27 10:46:00,43.3,40.6,30.30,SW,223,13.0,13.0,90,0.00,CLR,OVC,0.00,WeatherDisplay:10.37,2013-02-27 18:46:00,
2013-02-27 10:49:00,43.4,40.4,30.30,SW,215,15.0,15.0,89,0.00,CLR,OVC,0.00,WeatherDisplay:10.37,2013-02-27 18:49:00,
2013-02-27 10:50:00,43.5,40.5,30.30,SSW,196,18.4,18.4,89,0.00,CLR,OVC,0.00,WeatherDisplay:10.37,2013-02-27 18:50:00,
2013-02-27 10:51:00,43.5,40.2,30.30,SSW,201,12.7,12.7,88,0.00,CLR,OVC,0.00,WeatherDisplay:10.37,2013-02-27 18:51:00,
2013-02-27 10:52:00,43.6,40.6,30.30,SW,219,15.0,15.0,89,0.00,CLR,OVC,0.00,WeatherDisplay:10.37,2013-02-27 18:52:00,
2013-02-27 10:54:00,43.5,40.5,30.30,SW,219,19.6,19.6,89,0.00,CLR,OVC,0.00,WeatherDisplay:10.37,2013-02-27 18:54:00,
2013-02-27 10:55:00,43.5,40.5,30.30,SSW,205,16.0,16.0,89,0.00,CLR,OVC,0.00,WeatherDisplay:10.37,2013-02-27 18:55:00,
2013-02-27 10:56:00,43.5,40.5,30.30,SW,236,17.3,17.3,89,0.00,CLR,OVC,0.00,WeatherDisplay:10.37,2013-02-27 18:56:00,
2013-02-27 10:57:00,43.5,40.5,30.30,SSW,207,17.3,17.3,89,0.00,CLR,OVC,0.00,WeatherDisplay:10.37,2013-02-27 18:57:00,
2013-02-27 10:59:00,43.5,40.5,30.30,South,190,11.5,11.5,89,0.00,CLR,OVC,0.00,WeatherDisplay:10.37,2013-02-27 18:59:00,
2013-02-27 11:00:00,43.5,40.5,30.30,SSW,205,19.6,19.6,89,0.00,CLR,OVC,0.00,WeatherDisplay:10.37,2013-02-27 19:00:00,
2013-02-27 11:01:00,43.5,40.5,30.30,SSW,211,18.4,18.4,89,0.00,CLR,OVC,0.00,WeatherDisplay:10.37,2013-02-27 19:01:00,
2013-02-27 11:02:00,43.5,40.5,30.30,SSW,204,18.4,18.4,89,0.00,CLR,OVC,0.00,WeatherDisplay:10.37,2013-02-27 19:02:00,
2013-02-27 11:04:00,43.4,40.4,30.30,SSW,198,17.3,17.3,89,0.00,CLR,OVC,0.00,WeatherDisplay:10.37,2013-02-27 19:04:00,
2013-02-27 11:05:00,43.4,40.4,30.30,South,182,16.1,16.1,89,0.00,CLR,OVC,0.00,WeatherDisplay:10.37,2013-02-27 19:05:00,
2013-02-27 11:06:00,43.4,40.7,30.30,SSW,213,15.0,15.0,90,0.00,CLR,OVC,0.00,WeatherDisplay:10.37,2013-02-27 19:06:00,
2013-02-27 11:07:00,43.4,40.7,30.30,SSW,213,11.5,11.5,90,0.00,CLR,OVC,0.00,WeatherDisplay:10.37,2013-02-27 19:07:00,
2013-02-27 11:09:00,43.6,40.9,30.30,South,178,11.5,11.5,90,0.00,CLR,OVC,0.00,WeatherDisplay:10.37,2013-02-27 19:09:00,
2013-02-27 11:10:00,43.6,40.6,30.30,South,169,12.7,12.7,89,0.00,CLR,OVC,0.00,WeatherDisplay:10.37,2013-02-27 19:10:00,
2013-02-27 11:11:00,43.6,40.6,30.30,South,172,14.0,14.0,89,0.00,CLR,OVC,0.00,WeatherDisplay:10.37,2013-02-27 19:11:00,
2013-02-27 11:12:00,43.6,40.6,30.31,South,178,13.8,13.8,89,0.00,CLR,OVC,0.00,WeatherDisplay:10.37,2013-02-27 19:12:00,
2013-02-27 11:14:00,43.6,40.6,30.31,SW,225,15.0,15.0,89,0.00,CLR,OVC,0.00,WeatherDisplay:10.37,2013-02-27 19:14:00,
2013-02-27 11:15:00,43.5,40.5,30.31,SSW,211,17.3,17.3,89,0.00,CLR,OVC,0.00,WeatherDisplay:10.37,2013-02-27 19:15:00,
2013-02-27 11:16:00,43.6,40.6,30.31,SSW,194,12.7,12.7,89,0.00,CLR,OVC,0.00,WeatherDisplay:10.37,2013-02-27 19:16:00,
2013-02-27 11:17:00,43.5,40.5,30.31,SW,224,16.1,16.1,89,0.00,CLR,OVC,0.00,WeatherDisplay:10.37,2013-02-27 19:17:00,
2013-02-27 11:20:00,43.6,40.9,30.31,South,175,13.8,13.8,90,0.00,CLR,OVC,0.00,WeatherDisplay:10.37,2013-02-27 19:20:00,
2013-02-27 11:22:00,43.8,41.1,30.31,SW,220,12.7,12.7,90,0.00,CLR,OVC,0.00,WeatherDisplay:10.37,2013-02-27 19:22:00,
2013-02-27 11:25:00,43.8,41.1,30.31,SW,229,16.1,16.1,90,0.00,CLR,OVC,0.00,WeatherDisplay:10.37,2013-02-27 19:25:00,
2013-02-27 11:27:00,43.7,40.7,30.32,SSW,207,11.5,11.5,89,0.00,CLR,OVC,0.00,WeatherDisplay:10.37,2013-02-27 19:27:00,
2013-02-27 11:30:00,43.6,40.9,30.32,SW,230,12.7,12.7,90,0.00,CLR,OVC,0.00,WeatherDisplay:10.37,2013-02-27 19:30:00,
2013-02-27 11:32:00,43.6,40.9,30.31,WSW,240,13.0,13.0,90,0.00,CLR,OVC,0.00,WeatherDisplay:10.37,2013-02-27 19:32:00,
2013-02-27 11:35:00,43.5,40.8,30.32,SW,221,16.1,16.1,90,0.00,CLR,OVC,0.00,WeatherDisplay:10.37,2013-02-27 19:35:00,
2013-02-27 11:37:00,43.4,40.9,30.32,SSW,206,11.5,11.5,91,0.00,CLR,OVC,0.00,WeatherDisplay:10.37,2013-02-27 19:37:00,
2013-02-27 11:40:00,43.4,40.9,30.32,SSW,198,15.0,15.0,91,0.00,CLR,OVC,0.00,WeatherDisplay:10.37,2013-02-27 19:40:00,
2013-02-27 11:41:00,43.4,40.9,30.32,South,187,12.7,12.7,91,0.00,CLR,OVC,0.00,WeatherDisplay:10.37,2013-02-27 19:41:00,
2013-02-27 11:42:00,43.3,40.8,30.31,SSE,149,15.0,15.0,91,0.00,CLR,OVC,0.00,WeatherDisplay:10.37,2013-02-27 19:42:00,
2013-02-27 11:45:00,43.3,40.8,30.31,SW,225,12.7,12.7,91,0.00,CLR,OVC,0.00,WeatherDisplay:10.37,2013-02-27 19:45:00,
2013-02-27 11:46:00,43.3,40.8,30.32,SSW,207,12.7,12.7,91,0.00,CLR,OVC,0.00,WeatherDisplay:10.37,2013-02-27 19:46:00,
2013-02-27 11:47:00,43.4,41.2,30.32,SSW,206,14.0,14.0,92,0.00,CLR,OVC,0.00,WeatherDisplay:10.37,2013-02-27 19:47:00,
2013-02-27 11:48:00,43.4,40.9,30.32,SSW,197,11.5,11.6,91,0.00,CLR,OVC,0.00,WeatherDisplay:10.37,2013-02-27 19:48:00,
2013-02-27 11:50:00,43.4,40.9,30.32,SW,233,13.8,13.8,91,0.00,CLR,OVC,0.00,WeatherDisplay:10.37,2013-02-27 19:50:00,
2013-02-27 11:51:00,43.4,40.9,30.32,WSW,239,13.8,13.8,91,0.00,CLR,OVC,0.00,WeatherDisplay:10.37,2013-02-27 19:51:00,
2013-02-27 11:53:00,43.4,40.9,30.32,SSW,211,13.8,13.8,91,0.00,CLR,OVC,0.00,WeatherDisplay:10.37,2013-02-27 19:53:00,
2013-02-27 11:55:00,43.5,41.0,30.32,SW,228,16.1,16.1,91,0.00,CLR,OVC,0.00,WeatherDisplay:10.37,2013-02-27 19:55:00,
2013-02-27 11:56:00,43.5,41.0,30.32,SW,228,16.1,16.1,91,0.00,CLR,OVC,0.00,WeatherDisplay:10.37,2013-02-27 19:56:00,
2013-02-27 11:58:00,43.5,41.0,30.32,SW,232,17.3,17.3,91,0.00,CLR,OVC,0.00,WeatherDisplay:10.37,2013-02-27 19:58:00,
2013-02-27 12:00:00,43.6,41.1,30.32,SW,215,11.5,11.5,91,0.00,CLR,OVC,0.00,WeatherDisplay:10.37,2013-02-27 20:00:00,
2013-02-27 12:01:00,43.6,41.1,30.32,SW,231,11.5,11.5,91,0.00,CLR,OVC,0.00,WeatherDisplay:10.37,2013-02-27 20:01:00,
2013-02-27 12:03:00,43.7,41.5,30.32,SW,230,13.8,13.8,92,0.00,CLR,OVC,0.00,WeatherDisplay:10.37,2013-02-27 20:03:00,
2013-02-27 12:06:00,43.9,41.7,30.31,SSW,199,8.0,8.0,92,0.00,CLR,OVC,0.00,WeatherDisplay:10.37,2013-02-27 20:06:00,
2013-02-27 12:08:00,44.1,41.9,30.31,SSW,196,8.1,8.1,92,0.00,CLR,OVC,0.00,WeatherDisplay:10.37,2013-02-27 20:08:00,
2013-02-27 12:11:00,44.3,41.6,30.31,SW,223,16.1,16.1,90,0.00,CLR,OVC,0.00,WeatherDisplay:10.37,2013-02-27 20:11:00,
2013-02-27 12:13:00,44.2,41.5,30.31,SSW,206,15.0,15.0,90,0.00,CLR,OVC,0.00,WeatherDisplay:10.37,2013-02-27 20:13:00,
2013-02-27 12:16:00,44.0,41.5,30.31,South,189,13.8,13.8,91,0.00,CLR,OVC,0.00,WeatherDisplay:10.37,2013-02-27 20:16:00,
2013-02-27 12:18:00,44.1,41.6,30.31,SSW,202,11.5,11.5,91,0.00,CLR,OVC,0.00,WeatherDisplay:10.37,2013-02-27 20:18:00,
2013-02-27 12:21:00,44.2,41.5,30.31,SW,227,16.1,16.1,90,0.00,CLR,OVC,0.00,WeatherDisplay:10.37,2013-02-27 20:21:00,
2013-02-27 12:23:00,44.1,41.4,30.31,South,179,13.8,13.8,90,0.00,CLR,OVC,0.00,WeatherDisplay:10.37,2013-02-27 20:23:00,
2013-02-27 12:26:00,44.1,41.6,30.31,SW,219,16.1,16.1,91,0.00,CLR,OVC,0.00,WeatherDisplay:10.37,2013-02-27 20:26:00,
2013-02-27 12:28:00,44.1,41.6,30.31,SSW,213,11.5,11.5,91,0.00,CLR,OVC,0.00,WeatherDisplay:10.37,2013-02-27 20:28:00,
2013-02-27 12:31:00,44.1,41.6,30.31,SSE,161,16.1,16.1,91,0.00,CLR,OVC,0.00,WeatherDisplay:10.37,2013-02-27 20:31:00,
2013-02-27 12:33:00,44.1,41.6,30.31,SW,231,12.7,12.7,91,0.00,CLR,OVC,0.00,WeatherDisplay:10.37,2013-02-27 20:33:00,
2013-02-27 12:34:00,44.1,41.6,30.31,SW,234,10.4,10.4,91,0.00,CLR,OVC,0.00,WeatherDisplay:10.37,2013-02-27 20:34:00,
2013-02-27 12:36:00,44.1,41.6,30.31,WSW,239,16.0,16.0,91,0.00,CLR,OVC,0.00,WeatherDisplay:10.37,2013-02-27 20:36:00,
2013-02-27 12:38:00,44.1,41.4,30.31,SSW,212,17.3,17.3,90,0.00,CLR,OVC,0.00,WeatherDisplay:10.37,2013-02-27 20:38:00,
2013-02-27 12:39:00,44.1,41.4,30.31,SSW,194,13.0,13.0,90,0.00,CLR,OVC,0.00,WeatherDisplay:10.37,2013-02-27 20:39:00,
2013-02-27 12:41:00,44.1,41.4,30.31,South,184,15.0,15.0,90,0.00,CLR,OVC,0.00,WeatherDisplay:10.37,2013-02-27 20:41:00,
2013-02-27 12:43:00,44.1,41.4,30.31,SSW,192,11.5,11.5,90,0.00,CLR,OVC,0.00,WeatherDisplay:10.37,2013-02-27 20:43:00,
2013-02-27 12:44:00,44.1,41.4,30.31,SW,216,9.2,9.2,90,0.00,CLR,OVC,0.00,WeatherDisplay:10.37,2013-02-27 20:44:00,
2013-02-27 12:46:00,44.2,41.5,30.31,South,188,11.5,11.5,90,0.00,CLR,OVC,0.00,WeatherDisplay:10.37,2013-02-27 20:46:00,
2013-02-27 12:47:00,44.2,41.5,30.31,SW,215,12.0,12.0,90,0.00,CLR,OVC,0.00,WeatherDisplay:10.37,2013-02-27 20:47:00,
2013-02-27 12:48:00,44.2,41.5,30.31,South,190,17.3,17.3,90,0.00,CLR,OVC,0.00,WeatherDisplay:10.37,2013-02-27 20:48:00,
2013-02-27 12:49:00,44.1,41.4,30.31,SW,230,19.6,19.6,90,0.00,CLR,OVC,0.00,WeatherDisplay:10.37,2013-02-27 20:49:00,
2013-02-27 12:51:00,44.0,41.3,30.31,SSW,209,16.1,16.1,90,0.00,CLR,OVC,0.00,WeatherDisplay:10.37,2013-02-27 20:51:00,
2013-02-27 12:52:00,44.0,41.5,30.31,SW,216,18.0,18.0,91,0.00,CLR,OVC,0.00,WeatherDisplay:10.37,2013-02-27 20:52:00,
2013-02-27 12:54:00,44.0,41.5,30.31,SW,223,19.6,19.6,91,0.00,CLR,OVC,0.00,WeatherDisplay:10.37,2013-02-27 20:54:00,
2013-02-27 12:56:00,44.0,41.5,30.31,SW,219,17.3,17.3,91,0.00,CLR,OVC,0.00,WeatherDisplay:10.37,2013-02-27 20:56:00,
2013-02-27 12:57:00,44.0,41.5,30.31,SSW,209,17.3,17.3,91,0.00,CLR,OVC,0.00,WeatherDisplay:10.37,2013-02-27 20:57:00,
2013-02-27 12:59:00,43.9,41.4,30.31,SSW,209,13.8,13.8,91,0.00,CLR,OVC,0.00,WeatherDisplay:10.37,2013-02-27 20:59:00,
2013-02-27 13:00:00,44.0,41.5,30.31,SSW,202,11.5,11.5,91,0.00,CLR,OVC,0.00,WeatherDisplay:10.37,2013-02-27 21:00:00,
2013-02-27 13:01:00,44.0,41.5,30.31,South,191,14.0,14.0,91,0.00,CLR,OVC,0.00,WeatherDisplay:10.37,2013-02-27 21:01:00,
2013-02-27 13:02:00,44.0,41.5,30.31,SSE,153,10.4,10.4,91,0.00,CLR,OVC,0.00,WeatherDisplay:10.37,2013-02-27 21:02:00,
2013-02-27 13:04:00,44.1,41.6,30.31,South,187,16.1,16.1,91,0.00,CLR,OVC,0.00,WeatherDisplay:10.37,2013-02-27 21:04:00,
2013-02-27 13:05:00,44.1,41.6,30.31,SW,217,16.1,16.1,91,0.00,CLR,OVC,0.00,WeatherDisplay:10.37,2013-02-27 21:05:00,
2013-02-27 13:06:00,44.1,41.4,30.31,SSW,209,12.7,13.3,90,0.00,CLR,OVC,0.00,WeatherDisplay:10.37,2013-02-27 21:06:00,
2013-02-27 13:07:00,44.1,41.4,30.31,South,187,18.4,18.4,90,0.00,CLR,OVC,0.00,WeatherDisplay:10.37,2013-02-27 21:07:00,
2013-02-27 13:09:00,44.2,41.7,30.31,SSW,210,10.4,10.4,91,0.00,CLR,OVC,0.00,WeatherDisplay:10.37,2013-02-27 21:09:00,
2013-02-27 13:10:00,44.3,41.8,30.30,SSE,166,14.0,14.0,91,0.00,CLR,OVC,0.00,WeatherDisplay:10.37,2013-02-27 21:10:00,
2013-02-27 13:11:00,44.3,41.6,30.31,SSW,209,15.0,15.0,90,0.00,CLR,OVC,0.00,WeatherDisplay:10.37,2013-02-27 21:11:00,
2013-02-27 13:12:00,44.3,41.6,30.31,SW,227,17.3,17.3,90,0.00,CLR,OVC,0.00,WeatherDisplay:10.37,2013-02-27 21:12:00,
2013-02-27 13:14:00,44.3,41.3,30.31,SW,217,17.3,17.3,89,0.00,CLR,OVC,0.00,WeatherDisplay:10.37,2013-02-27 21:14:00,
2013-02-27 13:15:00,44.3,41.3,30.31,SW,220,17.3,17.3,89,0.00,CLR,OVC,0.00,WeatherDisplay:10.37,2013-02-27 21:15:00,
2013-02-27 13:17:00,44.3,41.3,30.31,SSW,211,13.8,13.8,89,0.00,CLR,OVC,0.00,WeatherDisplay:10.37,2013-02-27 21:17:00,
2013-02-27 13:19:00,44.4,41.4,30.31,SW,225,11.5,11.5,89,0.00,CLR,OVC,0.00,WeatherDisplay:10.37,2013-02-27 21:19:00,
2013-02-27 13:20:00,44.5,41.5,30.31,SSW,207,12.7,12.7,89,0.00,CLR,OVC,0.00,WeatherDisplay:10.37,2013-02-27 21:20:00,
2013-02-27 13:22:00,44.5,41.5,30.30,South,190,17.3,17.3,89,0.00,CLR,OVC,0.00,WeatherDisplay:10.37,2013-02-27 21:22:00,
2013-02-27 13:24:00,44.5,41.5,30.30,South,184,11.5,11.5,89,0.00,CLR,OVC,0.00,WeatherDisplay:10.37,2013-02-27 21:24:00,
2013-02-27 13:26:00,44.5,41.5,30.30,SSW,209,13.8,13.8,89,0.00,CLR,OVC,0.00,WeatherDisplay:10.37,2013-02-27 21:26:00,
2013-02-27 13:27:00,44.6,41.6,30.30,SSW,192,12.7,12.7,89,0.00,CLR,OVC,0.00,WeatherDisplay:10.37,2013-02-27 21:27:00,
2013-02-27 13:29:00,44.6,41.6,30.30,SW,215,13.8,13.8,89,0.00,CLR,OVC,0.00,WeatherDisplay:10.37,2013-02-27 21:29:00,
2013-02-27 13:31:00,44.6,41.6,30.30,SSE,153,13.8,13.8,89,0.00,CLR,OVC,0.00,WeatherDisplay:10.37,2013-02-27 21:31:00,
2013-02-27 13:32:00,44.6,41.6,30.30,South,178,13.8,13.8,89,0.00,CLR,OVC,0.00,WeatherDisplay:10.37,2013-02-27 21:32:00,
2013-02-27 13:34:00,44.6,41.6,30.30,SSW,209,19.6,19.6,89,0.00,CLR,OVC,0.00,WeatherDisplay:10.37,2013-02-27 21:34:00,
2013-02-27 13:36:00,44.6,41.6,30.30,SSW,192,17.3,17.3,89,0.00,CLR,OVC,0.00,WeatherDisplay:10.37,2013-02-27 21:36:00,
2013-02-27 13:37:00,44.6,41.6,30.30,SW,223,19.6,19.6,89,0.00,CLR,OVC,0.00,WeatherDisplay:10.37,2013-02-27 21:37:00,
2013-02-27 13:39:00,44.6,41.6,30.30,SW,231,16.1,16.1,89,0.00,CLR,OVC,0.00,WeatherDisplay:10.37,2013-02-27 21:39:00,
2013-02-27 13:41:00,44.6,41.8,30.30,SSW,209,12.0,12.0,90,0.00,CLR,OVC,0.00,WeatherDisplay:10.37,2013-02-27 21:41:00,
2013-02-27 13:42:00,44.6,41.6,30.30,SW,217,15.0,15.0,89,0.00,CLR,OVC,0.00,WeatherDisplay:10.37,2013-02-27 21:42:00,
2013-02-27 13:44:00,44.6,41.6,30.30,SSW,207,18.4,18.4,89,0.00,CLR,OVC,0.00,WeatherDisplay:10.37,2013-02-27 21:44:00,
2013-02-27 13:46:00,44.6,41.8,30.30,SW,230,12.7,12.7,90,0.00,CLR,OVC,0.00,WeatherDisplay:10.37,2013-02-27 21:46:00,
2013-02-27 13:47:00,44.6,41.6,30.30,SW,214,17.0,17.0,89,0.00,CLR,OVC,0.00,WeatherDisplay:10.37,2013-02-27 21:47:00,
2013-02-27 13:49:00,44.6,41.6,30.30,SW,225,11.5,11.5,89,0.00,CLR,OVC,0.00,WeatherDisplay:10.37,2013-02-27 21:49:00,
2013-02-27 13:51:00,44.7,41.7,30.30,SSE,161,11.5,11.5,89,0.00,CLR,OVC,0.00,WeatherDisplay:10.37,2013-02-27 21:51:00,
2013-02-27 13:52:00,44.7,41.9,30.30,South,182,9.2,9.2,90,0.00,CLR,OVC,0.00,WeatherDisplay:10.37,2013-02-27 21:52:00,
2013-02-27 13:53:00,44.8,42.0,30.30,South,173,9.2,9.2,90,0.00,CLR,OVC,0.00,WeatherDisplay:10.37,2013-02-27 21:53:00,
2013-02-27 13:54:00,44.8,41.8,30.30,SSW,193,12.0,12.0,89,0.00,CLR,OVC,0.00,WeatherDisplay:10.37,2013-02-27 21:54:00,
2013-02-27 13:56:00,44.8,41.8,30.30,SSW,209,12.7,12.7,89,0.00,CLR,OVC,0.00,WeatherDisplay:10.37,2013-02-27 21:56:00,
2013-02-27 13:57:00,44.9,41.9,30.30,SW,226,12.7,12.7,89,0.00,CLR,OVC,0.00,WeatherDisplay:10.37,2013-02-27 21:57:00,
2013-02-27 13:58:00,44.9,41.9,30.30,SW,217,12.7,12.7,89,0.00,CLR,OVC,0.00,WeatherDisplay:10.37,2013-02-27 21:58:00,
2013-02-27 14:00:00,45.0,41.9,30.30,SSW,203,10.0,16.0,89,0.00,CLR,OVC,0.00,WeatherDisplay:10.37,2013-02-27 22:00:00,
2013-02-27 14:01:00,45.0,42.0,30.30,SSW,213,12.7,12.7,89,0.00,CLR,OVC,0.00,WeatherDisplay:10.37,2013-02-27 22:01:00,
2013-02-27 14:02:00,44.9,41.9,30.30,SW,220,13.8,13.8,89,0.00,CLR,OVC,0.00,WeatherDisplay:10.37,2013-02-27 22:02:00,
2013-02-27 14:03:00,45.0,42.0,30.30,SSW,194,13.8,13.8,89,0.00,CLR,OVC,0.00,WeatherDisplay:10.37,2013-02-27 22:03:00,
2013-02-27 14:05:00,45.0,42.0,30.29,SW,223,13.0,13.0,89,0.00,CLR,OVC,0.00,WeatherDisplay:10.37,2013-02-27 22:05:00,
2013-02-27 14:06:00,45.0,42.0,30.29,SSW,212,15.0,15.0,89,0.00,CLR,OVC,0.00,WeatherDisplay:10.37,2013-02-27 22:06:00,
2013-02-27 14:08:00,45.1,42.1,30.29,SW,214,12.0,12.0,89,0.00,CLR,OVC,0.00,WeatherDisplay:10.37,2013-02-27 22:08:00,
2013-02-27 14:10:00,45.1,42.1,30.29,SSW,198,10.4,10.4,89,0.00,CLR,OVC,0.00,WeatherDisplay:10.37,2013-02-27 22:10:00,
2013-02-27 14:12:00,45.2,42.2,30.29,SW,234,11.5,11.5,89,0.00,CLR,OVC,0.00,WeatherDisplay:10.37,2013-02-27 22:12:00,
2013-02-27 14:13:00,45.2,42.2,30.29,South,170,5.8,5.8,89,0.00,CLR,OVC,0.00,WeatherDisplay:10.37,2013-02-27 22:13:00,
2013-02-27 14:15:00,45.4,42.3,30.29,SSE,148,15.0,15.0,89,0.00,CLR,OVC,0.00,WeatherDisplay:10.37,2013-02-27 22:15:00,
2013-02-27 14:17:00,45.5,42.4,30.29,SW,220,10.4,10.4,89,0.00,CLR,OVC,0.00,WeatherDisplay:10.37,2013-02-27 22:17:00,
2013-02-27 14:18:00,45.6,42.3,30.29,SSW,209,13.8,13.8,88,0.00,CLR,OVC,0.00,WeatherDisplay:10.37,2013-02-27 22:18:00,
2013-02-27 14:20:00,45.5,42.2,30.29,SW,221,15.0,15.0,88,0.00,CLR,OVC,0.00,WeatherDisplay:10.37,2013-02-27 22:20:00,
2013-02-27 14:22:00,45.5,42.2,30.29,SSW,196,13.0,13.0,88,0.00,CLR,OVC,0.00,WeatherDisplay:10.37,2013-02-27 22:22:00,
2013-02-27 14:23:00,45.4,42.1,30.29,SSE,161,12.7,12.7,88,0.00,CLR,OVC,0.00,WeatherDisplay:10.37,2013-02-27 22:23:00,
2013-02-27 14:25:00,45.4,42.1,30.29,SE,131,11.5,11.5,88,0.00,CLR,OVC,0.00,WeatherDisplay:10.37,2013-02-27 22:25:00,
2013-02-27 14:27:00,45.4,42.1,30.29,SSW,192,9.0,9.0,88,0.00,CLR,OVC,0.00,WeatherDisplay:10.37,2013-02-27 22:27:00,
2013-02-27 14:28:00,45.4,42.1,30.29,SSW,207,9.0,9.0,88,0.00,CLR,OVC,0.00,WeatherDisplay:10.37,2013-02-27 22:28:00,
2013-02-27 14:30:00,45.4,42.1,30.28,SSW,211,15.0,15.0,88,0.00,CLR,OVC,0.00,WeatherDisplay:10.37,2013-02-27 22:30:00,
2013-02-27 14:32:00,45.4,42.1,30.28,SW,223,15.0,15.0,88,0.00,CLR,OVC,0.00,WeatherDisplay:10.37,2013-02-27 22:32:00,
2013-02-27 14:33:00,45.4,42.1,30.28,SW,223,15.0,15.0,88,0.00,CLR,OVC,0.00,WeatherDisplay:10.37,2013-02-27 22:33:00,
2013-02-27 14:35:00,45.4,42.1,30.28,SW,222,13.8,13.8,88,0.00,CLR,OVC,0.00,WeatherDisplay:10.37,2013-02-27 22:35:00,
2013-02-27 14:38:00,45.5,41.9,30.28,SW,221,13.8,13.8,87,0.00,CLR,OVC,0.00,WeatherDisplay:10.37,2013-02-27 22:38:00,
2013-02-27 14:40:00,45.5,41.9,30.28,SW,223,11.5,11.5,87,0.00,CLR,OVC,0.00,WeatherDisplay:10.37,2013-02-27 22:40:00,
2013-02-27 14:43:00,45.5,41.6,30.28,SW,230,12.7,12.7,86,0.00,CLR,OVC,0.00,WeatherDisplay:10.37,2013-02-27 22:43:00,
2013-02-27 14:45:00,45.5,41.6,30.28,SW,224,11.5,11.5,86,0.00,CLR,OVC,0.00,WeatherDisplay:10.37,2013-02-27 22:45:00,
2013-02-27 14:48:00,45.6,41.7,30.29,South,182,12.7,12.7,86,0.00,CLR,OVC,0.00,WeatherDisplay:10.37,2013-02-27 22:48:00,
2013-02-27 14:50:00,45.5,41.3,30.28,SW,229,16.1,16.1,85,0.00,CLR,OVC,0.00,WeatherDisplay:10.37,2013-02-27 22:50:00,
2013-02-27 14:53:00,45.5,41.6,30.28,SW,217,11.5,11.5,86,0.00,CLR,OVC,0.00,WeatherDisplay:10.37,2013-02-27 22:53:00,
2013-02-27 14:55:00,45.5,41.6,30.29,SW,221,13.8,13.8,86,0.00,CLR,OVC,0.00,WeatherDisplay:10.37,2013-02-27 22:55:00,
2013-02-27 14:58:00,45.5,41.6,30.29,SSW,203,11.5,11.5,86,0.00,CLR,OVC,0.00,WeatherDisplay:10.37,2013-02-27 22:58:00,
2013-02-27 15:00:00,45.5,41.3,30.29,South,173,13.8,13.8,85,0.00,CLR,OVC,0.00,WeatherDisplay:10.37,2013-02-27 23:00:00,
2013-02-27 15:03:00,45.4,41.5,30.29,SW,220,16.1,16.1,86,0.00,CLR,OVC,0.00,WeatherDisplay:10.37,2013-02-27 23:03:00,
2013-02-27 15:04:00,45.4,41.5,30.29,SW,222,16.1,16.1,86,0.00,CLR,OVC,0.00,WeatherDisplay:10.37,2013-02-27 23:04:00,
2013-02-27 15:06:00,45.4,41.5,30.29,SW,232,13.8,13.8,86,0.00,CLR,OVC,0.00,WeatherDisplay:10.37,2013-02-27 23:06:00,
2013-02-27 15:08:00,45.4,41.5,30.29,SSW,201,12.7,12.7,86,0.00,CLR,OVC,0.00,WeatherDisplay:10.37,2013-02-27 23:08:00,
2013-02-27 15:09:00,45.4,41.5,30.29,SSW,198,12.7,12.7,86,0.00,CLR,OVC,0.00,WeatherDisplay:10.37,2013-02-27 23:09:00,
2013-02-27 15:11:00,45.5,41.6,30.29,South,173,14.0,14.0,86,0.00,CLR,OVC,0.00,WeatherDisplay:10.37,2013-02-27 23:11:00,
2013-02-27 15:13:00,45.4,41.5,30.29,SSW,198,15.0,15.0,86,0.00,CLR,OVC,0.00,WeatherDisplay:10.37,2013-02-27 23:13:00,
2013-02-27 15:14:00,45.5,41.6,30.29,WSW,242,15.0,15.0,86,0.00,CLR,OVC,0.00,WeatherDisplay:10.37,2013-02-27 23:14:00,
2013-02-27 15:16:00,45.5,41.6,30.29,SSW,202,15.0,15.0,86,0.00,CLR,OVC,0.00,WeatherDisplay:10.37,2013-02-27 23:16:00,
2013-02-27 15:18:00,45.5,41.9,30.29,SSW,201,10.4,10.4,87,0.00,CLR,OVC,0.00,WeatherDisplay:10.37,2013-02-27 23:18:00,
2013-02-27 15:19:00,45.5,41.6,30.29,SSW,199,10.4,10.4,86,0.00,CLR,OVC,0.00,WeatherDisplay:10.37,2013-02-27 23:19:00,
2013-02-27 15:21:00,45.5,41.6,30.29,SSW,210,13.8,13.8,86,0.00,CLR,OVC,0.00,WeatherDisplay:10.37,2013-02-27 23:21:00,
2013-02-27 15:23:00,45.5,41.6,30.29,SW,234,11.5,11.5,86,0.00,CLR,OVC,0.00,WeatherDisplay:10.37,2013-02-27 23:23:00,
2013-02-27 15:24:00,45.5,41.6,30.29,SW,223,11.5,11.5,86,0.00,CLR,OVC,0.00,WeatherDisplay:10.37,2013-02-27 23:24:00,
2013-02-27 15:26:00,45.5,41.9,30.30,SSW,199,9.2,9.2,87,0.00,CLR,OVC,0.00,WeatherDisplay:10.37,2013-02-27 23:26:00,
2013-02-27 15:28:00,45.4,41.8,30.30,SSW,210,10.4,10.4,87,0.00,CLR,OVC,0.00,WeatherDisplay:10.37,2013-02-27 23:28:00,
2013-02-27 15:29:00,45.4,41.8,30.29,SW,226,10.4,10.4,87,0.00,CLR,OVC,0.00,WeatherDisplay:10.37,2013-02-27 23:29:00,
2013-02-27 15:31:00,45.4,41.8,30.29,SW,229,9.2,9.2,87,0.00,CLR,OVC,0.00,WeatherDisplay:10.37,2013-02-27 23:31:00,
2013-02-27 15:33:00,45.4,42.1,30.29,SW,226,8.1,8.1,88,0.00,CLR,OVC,0.00,WeatherDisplay:10.37,2013-02-27 23:33:00,
2013-02-27 15:34:00,45.4,42.1,30.29,SW,223,8.1,8.1,88,0.00,CLR,OVC,0.00,WeatherDisplay:10.37,2013-02-27 23:34:00,
2013-02-27 15:36:00,45.3,42.0,30.29,SSW,200,10.4,10.4,88,0.00,CLR,OVC,0.00,WeatherDisplay:10.37,2013-02-27 23:36:00,
2013-02-27 15:38:00,45.3,42.0,30.29,SW,219,8.1,8.1,88,0.00,CLR,OVC,0.00,WeatherDisplay:10.37,2013-02-27 23:38:00,
2013-02-27 15:39:00,45.3,42.0,30.29,SW,216,8.1,8.1,88,0.00,CLR,OVC,0.00,WeatherDisplay:10.37,2013-02-27 23:39:00,
2013-02-27 15:41:00,45.3,41.7,30.29,SSW,203,11.5,11.5,87,0.00,CLR,OVC,0.00,WeatherDisplay:10.37,2013-02-27 23:41:00,
2013-02-27 15:43:00,45.4,41.8,30.29,South,175,11.0,11.0,87,0.00,CLR,OVC,0.00,WeatherDisplay:10.37,2013-02-27 23:43:00,
2013-02-27 15:44:00,45.4,41.8,30.29,SSW,205,10.4,10.4,87,0.00,CLR,OVC,0.00,WeatherDisplay:10.37,2013-02-27 23:44:00,
2013-02-27 15:46:00,45.4,42.1,30.29,SW,223,11.5,11.5,88,0.00,CLR,OVC,0.00,WeatherDisplay:10.37,2013-02-27 23:46:00,
2013-02-27 15:48:00,45.5,41.9,30.29,SSW,202,10.4,10.4,87,0.00,CLR,OVC,0.00,WeatherDisplay:10.37,2013-02-27 23:48:00,
2013-02-27 15:49:00,45.5,41.9,30.29,SSW,209,10.4,10.4,87,0.00,CLR,OVC,0.00,WeatherDisplay:10.37,2013-02-27 23:49:00,
2013-02-27 15:52:00,45.5,41.9,30.29,SSW,209,9.2,10.5,87,0.00,CLR,OVC,0.00,WeatherDisplay:10.37,2013-02-27 23:52:00,
2013-02-27 15:53:00,45.5,41.9,30.28,SW,215,13.0,13.0,87,0.00,CLR,OVC,0.00,WeatherDisplay:10.37,2013-02-27 23:53:00,
2013-02-27 15:54:00,45.5,41.9,30.29,SSW,212,12.7,12.7,87,0.00,CLR,OVC,0.00,WeatherDisplay:10.37,2013-02-27 23:54:00,
2013-02-27 15:55:00,45.5,41.9,30.29,SW,223,12.7,12.7,87,0.00,CLR,OVC,0.00,WeatherDisplay:10.37,2013-02-27 23:55:00,
2013-02-27 15:57:00,45.6,42.0,30.29,South,173,11.5,11.5,87,0.00,CLR,OVC,0.00,WeatherDisplay:10.37,2013-02-27 23:57:00,
2013-02-27 15:58:00,45.5,41.9,30.29,SW,230,10.0,10.0,87,0.00,CLR,OVC,0.00,WeatherDisplay:10.37,2013-02-27 23:58:00,
2013-02-27 15:59:00,45.5,41.9,30.29,SW,216,10.4,10.4,87,0.00,CLR,OVC,0.00,WeatherDisplay:10.37,2013-02-27 23:59:00,
2013-02-27 16:00:00,45.6,42.0,30.28,SW,234,10.4,10.4,87,0.00,CLR,OVC,0.00,WeatherDisplay:10.37,2013-02-28 00:00:00,
2013-02-27 16:02:00,45.5,41.9,30.28,SW,225,10.4,10.4,87,0.00,CLR,OVC,0.00,WeatherDisplay:10.37,2013-02-28 00:02:00,
2013-02-27 16:03:00,45.5,41.9,30.28,SW,217,8.0,8.0,87,0.00,CLR,OVC,0.00,WeatherDisplay:10.37,2013-02-28 00:03:00,
2013-02-27 16:04:00,45.6,42.0,30.28,SSW,210,9.2,9.2,87,0.00,CLR,OVC,0.00,WeatherDisplay:10.37,2013-02-28 00:04:00,
2013-02-27 16:05:00,45.6,42.0,30.28,SW,216,8.0,10.0,87,0.00,CLR,OVC,0.00,WeatherDisplay:10.37,2013-02-28 00:05:00,
2013-02-27 16:07:00,45.6,42.0,30.29,SW,227,6.9,6.9,87,0.00,CLR,OVC,0.00,WeatherDisplay:10.37,2013-02-28 00:07:00,
2013-02-27 16:08:00,45.5,41.9,30.29,SW,217,5.8,5.8,87,0.00,CLR,OVC,0.00,WeatherDisplay:10.37,2013-02-28 00:08:00,
2013-02-27 16:09:00,45.5,41.9,30.29,SW,227,4.6,4.6,87,0.00,CLR,OVC,0.00,WeatherDisplay:10.37,2013-02-28 00:09:00,
2013-02-27 16:10:00,45.5,41.9,30.29,SW,221,5.0,8.0,87,0.00,CLR,OVC,0.00,WeatherDisplay:10.37,2013-02-28 00:10:00,
2013-02-27 16:12:00,45.6,42.0,30.29,SW,225,9.2,9.2,87,0.00,CLR,OVC,0.00,WeatherDisplay:10.37,2013-02-28 00:12:00,
2013-02-27 16:14:00,45.6,42.0,30.29,SW,221,8.1,8.1,87,0.00,CLR,OVC,0.00,WeatherDisplay:10.37,2013-02-28 00:14:00,
2013-02-27 16:15:00,45.6,42.0,30.29,SSW,213,8.1,8.1,87,0.00,CLR,OVC,0.00,WeatherDisplay:10.37,2013-02-28 00:15:00,
2013-02-27 16:18:00,45.6,42.0,30.29,SSW,194,8.1,8.1,87,0.00,CLR,OVC,0.00,WeatherDisplay:10.37,2013-02-28 00:18:00,
2013-02-27 16:20:00,45.6,42.0,30.28,SW,216,9.2,9.2,87,0.00,CLR,OVC,0.00,WeatherDisplay:10.37,2013-02-28 00:20:00,
2013-02-27 16:23:00,45.6,42.3,30.28,SSW,206,4.6,4.6,88,0.00,CLR,OVC,0.00,WeatherDisplay:10.37,2013-02-28 00:23:00,
2013-02-27 16:25:00,45.6,42.0,30.28,SW,222,8.1,8.1,87,0.00,CLR,OVC,0.00,WeatherDisplay:10.37,2013-02-28 00:25:00,
2013-02-27 16:28:00,45.7,42.3,30.28,SSW,198,8.1,8.1,88,0.00,CLR,OVC,0.00,WeatherDisplay:10.37,2013-02-28 00:28:00,
2013-02-27 16:30:00,45.7,42.3,30.28,SW,216,7.0,12.0,88,0.00,CLR,OVC,0.00,WeatherDisplay:10.37,2013-02-28 00:30:00,
2013-02-27 16:33:00,45.7,42.3,30.28,SSW,209,8.1,8.1,88,0.00,CLR,OVC,0.00,WeatherDisplay:10.37,2013-02-28 00:33:00,
2013-02-27 16:35:00,45.7,42.3,30.28,SW,216,7.0,10.0,88,0.00,CLR,OVC,0.00,WeatherDisplay:10.37,2013-02-28 00:35:00,
2013-02-27 16:38:00,45.7,42.1,30.28,SSW,196,11.5,11.5,87,0.00,CLR,OVC,0.00,WeatherDisplay:10.37,2013-02-28 00:38:00,
2013-02-27 16:40:00,45.7,42.3,30.28,SSW,213,9.0,13.0,88,0.00,CLR,OVC,0.00,WeatherDisplay:10.37,2013-02-28 00:40:00,
2013-02-27 16:43:00,45.8,42.4,30.28,SW,220,9.2,9.2,88,0.00,CLR,OVC,0.00,WeatherDisplay:10.37,2013-02-28 00:43:00,
2013-02-27 16:45:00,45.7,42.4,30.28,SW,219,8.0,12.0,88,0.00,CLR,OVC,0.00,WeatherDisplay:10.37,2013-02-28 00:45:00,
2013-02-27 16:48:00,45.8,42.4,30.28,SW,228,10.4,10.4,88,0.00,CLR,OVC,0.00,WeatherDisplay:10.37,2013-02-28 00:48:00,
2013-02-27 16:50:00,45.7,42.4,30.28,SW,225,8.0,10.0,88,0.00,CLR,OVC,0.00,WeatherDisplay:10.37,2013-02-28 00:50:00,
2013-02-27 16:51:00,45.8,42.4,30.28,SW,231,9.2,9.2,88,0.00,CLR,OVC,0.00,WeatherDisplay:10.37,2013-02-28 00:51:00,
2013-02-27 16:53:00,45.7,42.3,30.28,SW,231,8.1,8.1,88,0.00,CLR,OVC,0.00,WeatherDisplay:10.37,2013-02-28 00:53:00,
2013-02-27 16:55:00,45.7,42.3,30.28,SSW,207,4.6,4.6,88,0.00,CLR,OVC,0.00,WeatherDisplay:10.37,2013-02-28 00:55:00,
2013-02-27 16:56:00,45.7,42.3,30.28,WSW,240,12.0,12.0,88,0.00,CLR,OVC,0.00,WeatherDisplay:10.37,2013-02-28 00:56:00,
2013-02-27 16:58:00,45.7,42.3,30.28,SW,236,11.5,11.5,88,0.00,CLR,OVC,0.00,WeatherDisplay:10.37,2013-02-28 00:58:00,
2013-02-27 17:00:00,45.8,42.4,30.28,SW,226,9.2,9.2,88,0.00,CLR,OVC,0.00,WeatherDisplay:10.37,2013-02-28 01:00:00,
2013-02-27 17:01:00,45.7,42.6,30.28,South,188,9.2,9.2,89,0.00,CLR,OVC,0.00,WeatherDisplay:10.37,2013-02-28 01:01:00,
2013-02-27 17:04:00,45.7,42.6,30.28,SW,218,11.5,11.5,89,0.00,CLR,OVC,0.00,WeatherDisplay:10.37,2013-02-28 01:04:00,
2013-02-27 17:05:00,45.7,42.6,30.28,SW,230,11.5,11.5,89,0.00,CLR,OVC,0.00,WeatherDisplay:10.37,2013-02-28 01:05:00,
2013-02-27 17:06:00,45.7,42.6,30.28,WSW,238,11.5,11.5,89,0.00,CLR,OVC,0.00,WeatherDisplay:10.37,2013-02-28 01:06:00,
2013-02-27 17:09:00,45.8,42.4,30.28,SSW,192,10.4,10.4,88,0.00,CLR,OVC,0.00,WeatherDisplay:10.37,2013-02-28 01:09:00,
2013-02-27 17:10:00,45.8,42.4,30.28,SSW,208,9.2,9.2,88,0.00,CLR,OVC,0.00,WeatherDisplay:10.37,2013-02-28 01:10:00,
2013-02-27 17:11:00,45.8,42.7,30.28,SSW,213,9.2,9.2,89,0.00,CLR,OVC,0.00,WeatherDisplay:10.37,2013-02-28 01:11:00,
2013-02-27 17:14:00,45.8,42.7,30.28,South,183,10.4,10.4,89,0.00,CLR,OVC,0.00,WeatherDisplay:10.37,2013-02-28 01:14:00,
2013-02-27 17:15:00,45.8,42.7,30.28,SSW,203,6.9,6.9,89,0.00,CLR,OVC,0.00,WeatherDisplay:10.37,2013-02-28 01:15:00,
2013-02-27 17:16:00,45.7,42.6,30.28,SW,236,6.9,6.9,89,0.00,CLR,OVC,0.00,WeatherDisplay:10.37,2013-02-28 01:16:00,
2013-02-27 17:19:00,45.7,42.6,30.28,SSW,211,9.2,9.2,89,0.00,CLR,OVC,0.00,WeatherDisplay:10.37,2013-02-28 01:19:00,
2013-02-27 17:20:00,45.7,42.6,30.28,SSW,207,8.1,8.1,89,0.00,CLR,OVC,0.00,WeatherDisplay:10.37,2013-02-28 01:20:00,
2013-02-27 17:21:00,45.7,42.6,30.28,SW,220,8.1,8.1,89,0.00,CLR,OVC,0.00,WeatherDisplay:10.37,2013-02-28 01:21:00,
2013-02-27 17:24:00,45.6,42.5,30.28,SW,236,6.9,6.9,89,0.00,CLR,OVC,0.00,WeatherDisplay:10.37,2013-02-28 01:24:00,
2013-02-27 17:26:00,45.6,42.5,30.28,SW,232,8.1,8.1,89,0.00,CLR,OVC,0.00,WeatherDisplay:10.37,2013-02-28 01:26:00,
2013-02-27 17:29:00,45.6,42.5,30.28,SW,217,8.0,8.0,89,0.00,CLR,OVC,0.00,WeatherDisplay:10.37,2013-02-28 01:29:00,
2013-02-27 17:31:00,45.7,42.6,30.28,SSW,211,8.1,8.1,89,0.00,CLR,OVC,0.00,WeatherDisplay:10.37,2013-02-28 01:31:00,
2013-02-27 17:34:00,45.7,42.6,30.28,SSW,208,11.5,11.5,89,0.00,CLR,OVC,0.00,WeatherDisplay:10.37,2013-02-28 01:34:00,
2013-02-27 17:36:00,45.7,42.6,30.28,SSW,205,9.2,9.2,89,0.00,CLR,OVC,0.00,WeatherDisplay:10.37,2013-02-28 01:36:00,
2013-02-27 17:39:00,45.7,42.6,30.27,SW,227,6.9,6.9,89,0.00,CLR,OVC,0.00,WeatherDisplay:10.37,2013-02-28 01:39:00,
2013-02-27 17:41:00,45.6,42.5,30.28,SSW,200,6.9,6.9,89,0.00,CLR,OVC,0.00,WeatherDisplay:10.37,2013-02-28 01:41:00,
2013-02-27 17:42:00,45.6,42.5,30.28,SW,219,6.0,6.0,89,0.00,CLR,OVC,0.00,WeatherDisplay:10.37,2013-02-28 01:42:00,
2013-02-27 17:44:00,45.6,42.5,30.27,SW,217,11.5,11.5,89,0.00,CLR,OVC,0.00,WeatherDisplay:10.37,2013-02-28 01:44:00,
2013-02-27 17:46:00,45.6,42.5,30.27,SSW,203,11.5,11.5,89,0.00,CLR,OVC,0.00,WeatherDisplay:10.37,2013-02-28 01:46:00,
2013-02-27 17:47:00,45.6,42.5,30.28,SSW,210,11.5,11.5,89,0.00,CLR,OVC,0.00,WeatherDisplay:10.37,2013-02-28 01:47:00,
2013-02-27 17:49:00,45.6,42.5,30.27,SW,223,8.1,8.1,89,0.00,CLR,OVC,0.00,WeatherDisplay:10.37,2013-02-28 01:49:00,
2013-02-27 17:51:00,45.6,42.5,30.27,SW,223,9.2,9.2,89,0.00,CLR,OVC,0.00,WeatherDisplay:10.37,2013-02-28 01:51:00,
2013-02-27 17:52:00,45.6,42.5,30.27,SW,223,8.1,8.1,89,0.00,CLR,OVC,0.00,WeatherDisplay:10.37,2013-02-28 01:52:00,
2013-02-27 17:54:00,45.6,42.8,30.27,SW,227,10.4,10.4,90,0.00,CLR,OVC,0.00,WeatherDisplay:10.37,2013-02-28 01:54:00,
2013-02-27 17:56:00,45.6,42.8,30.27,SW,224,6.9,6.9,90,0.00,CLR,OVC,0.00,WeatherDisplay:10.37,2013-02-28 01:56:00,
2013-02-27 17:57:00,45.6,42.8,30.27,SW,221,9.2,9.2,90,0.00,CLR,OVC,0.00,WeatherDisplay:10.37,2013-02-28 01:57:00,
2013-02-27 18:00:00,45.6,42.8,30.27,SW,220,8.1,8.1,90,0.00,CLR,OVC,0.00,WeatherDisplay:10.37,2013-02-28 02:00:00,
2013-02-27 18:01:00,45.5,42.7,30.27,SW,221,6.0,6.0,90,0.00,CLR,OVC,0.00,WeatherDisplay:10.37,2013-02-28 02:01:00,
2013-02-27 18:02:00,45.5,42.7,30.27,SSW,200,8.1,8.1,90,0.00,CLR,OVC,0.00,WeatherDisplay:10.37,2013-02-28 02:02:00,
2013-02-27 18:05:00,45.5,42.7,30.27,SW,229,8.1,8.1,90,0.00,CLR,OVC,0.00,WeatherDisplay:10.37,2013-02-28 02:05:00,
2013-02-27 18:06:00,45.5,42.7,30.27,SW,219,6.9,6.9,90,0.00,CLR,OVC,0.00,WeatherDisplay:10.37,2013-02-28 02:06:00,
2013-02-27 18:07:00,45.5,42.7,30.27,SW,216,5.8,5.8,90,0.00,CLR,OVC,0.00,WeatherDisplay:10.37,2013-02-28 02:07:00,
2013-02-27 18:08:00,45.5,42.7,30.27,SW,216,5.8,5.8,90,0.00,CLR,OVC,0.00,WeatherDisplay:10.37,2013-02-28 02:08:00,
2013-02-27 18:10:00,45.5,42.7,30.27,SW,217,4.6,4.6,90,0.00,CLR,OVC,0.00,WeatherDisplay:10.37,2013-02-28 02:10:00,
2013-02-27 18:11:00,45.4,42.6,30.27,SW,222,4.6,4.6,90,0.00,CLR,OVC,0.00,WeatherDisplay:10.37,2013-02-28 02:11:00,
2013-02-27 18:12:00,45.4,42.6,30.27,SW,221,4.6,4.6,90,0.00,CLR,OVC,0.00,WeatherDisplay:10.37,2013-02-28 02:12:00,
2013-02-27 18:13:00,45.4,42.6,30.27,SW,220,5.0,5.0,90,0.00,CLR,OVC,0.00,WeatherDisplay:10.37,2013-02-28 02:13:00,
2013-02-27 18:15:00,45.4,42.6,30.26,SW,215,4.6,4.6,90,0.00,CLR,OVC,0.00,WeatherDisplay:10.37,2013-02-28 02:15:00,
2013-02-27 18:16:00,45.4,42.6,30.26,SW,215,3.5,3.5,90,0.00,CLR,OVC,0.00,WeatherDisplay:10.37,2013-02-28 02:16:00,
2013-02-27 18:18:00,45.4,42.6,30.27,SW,216,5.8,5.8,90,0.00,CLR,OVC,0.00,WeatherDisplay:10.37,2013-02-28 02:18:00,
2013-02-27 18:20:00,45.4,42.6,30.26,SSW,194,5.8,5.8,90,0.00,CLR,OVC,0.00,WeatherDisplay:10.37,2013-02-28 02:20:00,
2013-02-27 18:22:00,45.4,42.6,30.26,SSW,209,6.9,6.9,90,0.00,CLR,OVC,0.00,WeatherDisplay:10.37,2013-02-28 02:22:00,
2013-02-27 18:23:00,45.4,42.6,30.26,South,170,6.9,6.9,90,0.00,CLR,OVC,0.00,WeatherDisplay:10.37,2013-02-28 02:23:00,
2013-02-27 18:25:00,45.4,42.6,30.26,SW,217,4.6,4.6,90,0.00,CLR,OVC,0.00,WeatherDisplay:10.37,2013-02-28 02:25:00,
2013-02-27 18:27:00,45.4,42.6,30.26,SW,217,4.0,4.0,90,0.00,CLR,OVC,0.00,WeatherDisplay:10.37,2013-02-28 02:27:00,
2013-02-27 18:28:00,45.3,42.5,30.26,SSW,203,6.0,6.0,90,0.00,CLR,OVC,0.00,WeatherDisplay:10.37,2013-02-28 02:28:00,
2013-02-27 18:30:00,45.4,42.6,30.26,SSW,213,8.1,8.1,90,0.00,CLR,OVC,0.00,WeatherDisplay:10.37,2013-02-28 02:30:00,
2013-02-27 18:32:00,45.4,42.6,30.26,SSW,207,5.0,5.0,90,0.00,CLR,OVC,0.00,WeatherDisplay:10.37,2013-02-28 02:32:00,
2013-02-27 18:33:00,45.4,42.6,30.26,SSW,210,4.6,4.6,90,0.00,CLR,OVC,0.00,WeatherDisplay:10.37,2013-02-28 02:33:00,
2013-02-27 18:36:00,45.4,42.6,30.26,SW,228,4.6,4.6,90,0.00,CLR,OVC,0.00,WeatherDisplay:10.37,2013-02-28 02:36:00,
2013-02-27 18:37:00,45.4,42.6,30.27,SSW,211,4.0,4.0,90,0.00,CLR,OVC,0.00,WeatherDisplay:10.37,2013-02-28 02:37:00,
2013-02-27 18:38:00,45.4,42.6,30.26,SSW,211,4.0,4.0,90,0.00,CLR,OVC,0.00,WeatherDisplay:10.37,2013-02-28 02:38:00,
2013-02-27 18:41:00,45.4,42.6,30.27,SW,224,5.0,5.0,90,0.00,CLR,OVC,0.00,WeatherDisplay:10.37,2013-02-28 02:41:00,
2013-02-27 18:42:00,45.4,42.6,30.27,South,178,3.5,3.5,90,0.00,CLR,OVC,0.00,WeatherDisplay:10.37,2013-02-28 02:42:00,
2013-02-27 18:43:00,45.4,42.6,30.27,SW,219,5.0,5.0,90,0.00,CLR,OVC,0.00,WeatherDisplay:10.37,2013-02-28 02:43:00,
2013-02-27 18:46:00,45.4,42.6,30.26,SSW,198,5.8,5.8,90,0.00,CLR,OVC,0.00,WeatherDisplay:10.37,2013-02-28 02:46:00,
2013-02-27 18:48:00,45.4,42.9,30.26,SW,227,3.5,3.5,91,0.00,CLR,OVC,0.00,WeatherDisplay:10.37,2013-02-28 02:48:00,
2013-02-27 18:51:00,45.4,42.9,30.26,SSW,212,4.6,4.6,91,0.00,CLR,OVC,0.00,WeatherDisplay:10.37,2013-02-28 02:51:00,
2013-02-27 18:53:00,45.4,42.9,30.26,SSW,212,3.5,3.5,91,0.00,CLR,OVC,0.00,WeatherDisplay:10.37,2013-02-28 02:53:00,
2013-02-27 18:56:00,45.4,42.9,30.25,SSW,209,3.5,3.5,91,0.00,CLR,OVC,0.00,WeatherDisplay:10.37,2013-02-28 02:56:00,
2013-02-27 18:58:00,45.3,42.8,30.25,SSW,209,3.5,3.5,91,0.00,CLR,OVC,0.00,WeatherDisplay:10.37,2013-02-28 02:58:00,
2013-02-27 19:01:00,45.3,42.8,30.25,SSW,209,5.0,5.0,91,0.00,CLR,OVC,0.00,WeatherDisplay:10.37,2013-02-28 03:01:00,
2013-02-27 19:03:00,45.3,42.8,30.25,SW,223,5.0,5.0,91,0.00,CLR,OVC,0.00,WeatherDisplay:10.37,2013-02-28 03:03:00,
2013-02-27 19:06:00,45.3,42.8,30.25,SW,222,5.8,5.8,91,0.00,CLR,OVC,0.00,WeatherDisplay:10.37,2013-02-28 03:06:00,
2013-02-27 19:08:00,45.3,42.8,30.25,SW,215,5.8,5.8,91,0.00,CLR,OVC,0.00,WeatherDisplay:10.37,2013-02-28 03:08:00,
2013-02-27 19:11:00,45.3,42.8,30.25,SW,230,5.8,5.8,91,0.00,CLR,OVC,0.00,WeatherDisplay:10.37,2013-02-28 03:11:00,
2013-02-27 19:13:00,45.3,42.8,30.25,SW,221,4.6,4.6,91,0.00,CLR,OVC,0.00,WeatherDisplay:10.37,2013-02-28 03:13:00,
2013-02-27 19:14:00,45.4,42.9,30.25,SW,221,4.6,4.6,91,0.00,CLR,OVC,0.00,WeatherDisplay:10.37,2013-02-28 03:14:00,
2013-02-27 19:16:00,45.3,42.8,30.26,SW,227,4.6,4.6,91,0.00,CLR,OVC,0.00,WeatherDisplay:10.37,2013-02-28 03:16:00,
2013-02-27 19:18:00,45.3,42.8,30.26,SW,226,4.6,4.6,91,0.00,CLR,OVC,0.00,WeatherDisplay:10.37,2013-02-28 03:18:00,
2013-02-27 19:19:00,45.3,42.8,30.26,SW,226,4.6,4.6,91,0.00,CLR,OVC,0.00,WeatherDisplay:10.37,2013-02-28 03:19:00,
2013-02-27 19:21:00,45.3,42.8,30.26,SW,219,4.6,4.6,91,0.00,CLR,OVC,0.00,WeatherDisplay:10.37,2013-02-28 03:21:00,
2013-02-27 19:23:00,45.3,42.8,30.26,SW,219,6.0,6.5,91,0.00,CLR,OVC,0.00,WeatherDisplay:10.37,2013-02-28 03:23:00,
2013-02-27 19:24:00,45.3,42.8,30.26,South,190,6.0,6.7,91,0.00,CLR,OVC,0.00,WeatherDisplay:10.37,2013-02-28 03:24:00,
2013-02-27 19:26:00,45.4,42.9,30.26,WSW,237,5.8,5.8,91,0.00,CLR,OVC,0.00,WeatherDisplay:10.37,2013-02-28 03:26:00,
2013-02-27 19:28:00,45.3,42.8,30.26,SW,222,4.6,4.6,91,0.00,CLR,OVC,0.00,WeatherDisplay:10.37,2013-02-28 03:28:00,
2013-02-27 19:29:00,45.4,42.9,30.26,SW,222,4.0,4.0,91,0.00,CLR,OVC,0.00,WeatherDisplay:10.37,2013-02-28 03:29:00,
2013-02-27 19:31:00,45.3,42.8,30.26,South,180,4.0,4.0,91,0.00,CLR,OVC,0.00,WeatherDisplay:10.37,2013-02-28 03:31:00,
2013-02-27 19:34:00,45.2,42.7,30.26,SSW,210,4.6,4.6,91,0.00,CLR,OVC,0.00,WeatherDisplay:10.37,2013-02-28 03:34:00,
2013-02-27 19:37:00,45.2,42.7,30.26,SW,219,6.0,6.1,91,0.00,CLR,OVC,0.00,WeatherDisplay:10.37,2013-02-28 03:37:00,
2013-02-27 19:39:00,45.2,42.7,30.26,SW,219,8.1,8.1,91,0.00,CLR,OVC,0.00,WeatherDisplay:10.37,2013-02-28 03:39:00,
2013-02-27 19:42:00,45.2,42.7,30.26,SW,223,5.8,5.8,91,0.00,CLR,OVC,0.00,WeatherDisplay:10.37,2013-02-28 03:42:00,
2013-02-27 19:44:00,45.2,42.7,30.26,SW,217,5.8,5.8,91,0.00,CLR,OVC,0.00,WeatherDisplay:10.37,2013-02-28 03:44:00,
2013-02-27 19:47:00,45.2,42.7,30.26,SW,229,7.0,7.0,91,0.00,CLR,OVC,0.00,WeatherDisplay:10.37,2013-02-28 03:47:00,
2013-02-27 19:49:00,45.2,42.7,30.26,SW,215,5.8,5.8,91,0.00,CLR,OVC,0.00,WeatherDisplay:10.37,2013-02-28 03:49:00,
2013-02-27 19:52:00,45.2,42.7,30.26,SW,229,6.9,6.9,91,0.00,CLR,OVC,0.00,WeatherDisplay:10.37,2013-02-28 03:52:00,
2013-02-27 19:54:00,45.2,42.7,30.27,SW,227,4.6,4.6,91,0.00,CLR,OVC,0.00,WeatherDisplay:10.37,2013-02-28 03:54:00,
2013-02-27 19:57:00,45.2,42.7,30.26,SSW,205,5.8,5.8,91,0.00,CLR,OVC,0.00,WeatherDisplay:10.37,2013-02-28 03:57:00,
2013-02-27 19:59:00,45.2,43.0,30.26,SW,220,5.8,5.8,92,0.00,CLR,OVC,0.00,WeatherDisplay:10.37,2013-02-28 03:59:00,
2013-02-27 20:02:00,45.2,43.0,30.27,SSW,212,7.0,7.0,92,0.00,CLR,OVC,0.00,WeatherDisplay:10.37,2013-02-28 04:02:00,
2013-02-27 20:04:00,45.2,43.0,30.27,SW,230,5.8,5.8,92,0.00,CLR,OVC,0.00,WeatherDisplay:10.37,2013-02-28 04:04:00,
2013-02-27 20:07:00,45.2,43.0,30.27,SSW,204,5.8,5.8,92,0.00,CLR,OVC,0.00,WeatherDisplay:10.37,2013-02-28 04:07:00,
2013-02-27 20:09:00,45.3,43.1,30.27,SW,222,4.6,4.6,92,0.00,CLR,OVC,0.00,WeatherDisplay:10.37,2013-02-28 04:09:00,
2013-02-27 20:12:00,45.4,42.9,30.27,SW,227,6.0,6.0,91,0.00,CLR,OVC,0.00,WeatherDisplay:10.37,2013-02-28 04:12:00,
2013-02-27 20:14:00,45.4,42.9,30.27,SW,214,5.0,5.0,91,0.00,CLR,OVC,0.00,WeatherDisplay:10.37,2013-02-28 04:14:00,
2013-02-27 20:15:00,45.4,42.9,30.27,SW,217,5.8,5.8,91,0.00,CLR,OVC,0.00,WeatherDisplay:10.37,2013-02-28 04:15:00,
2013-02-27 20:17:00,45.4,42.9,30.27,SSW,211,4.6,4.6,91,0.00,CLR,OVC,0.00,WeatherDisplay:10.37,2013-02-28 04:17:00,
2013-02-27 20:19:00,45.4,43.2,30.27,SSW,209,4.6,4.6,92,0.00,CLR,OVC,0.00,WeatherDisplay:10.37,2013-02-28 04:19:00,
2013-02-27 20:20:00,45.4,43.2,30.27,SSW,209,4.6,4.6,92,0.00,CLR,OVC,0.00,WeatherDisplay:10.37,2013-02-28 04:20:00,
2013-02-27 20:22:00,45.3,43.1,30.27,SSW,209,3.5,3.5,92,0.00,CLR,OVC,0.00,WeatherDisplay:10.37,2013-02-28 04:22:00,
2013-02-27 20:25:00,45.2,43.0,30.27,SSW,209,3.5,3.5,92,0.00,CLR,OVC,0.00,WeatherDisplay:10.37,2013-02-28 04:25:00,
2013-02-27 20:28:00,45.2,43.0,30.27,South,189,4.6,4.6,92,0.00,CLR,OVC,0.00,WeatherDisplay:10.37,2013-02-28 04:28:00,
2013-02-27 20:30:00,45.2,43.0,30.27,SSW,202,2.0,5.0,92,0.00,CLR,OVC,0.00,WeatherDisplay:10.37,2013-02-28 04:30:00,
2013-02-27 20:33:00,45.2,43.0,30.27,SSE,167,4.6,4.6,92,0.00,CLR,OVC,0.00,WeatherDisplay:10.37,2013-02-28 04:33:00,
2013-02-27 20:35:00,45.2,43.0,30.27,SSW,210,3.5,3.5,92,0.00,CLR,OVC,0.00,WeatherDisplay:10.37,2013-02-28 04:35:00,
2013-02-27 20:38:00,45.2,43.0,30.27,SW,218,4.6,4.6,92,0.00,CLR,OVC,0.00,WeatherDisplay:10.37,2013-02-28 04:38:00,
2013-02-27 20:40:00,45.1,43.2,30.27,SSW,193,4.6,4.6,93,0.00,CLR,OVC,0.00,WeatherDisplay:10.37,2013-02-28 04:40:00,
2013-02-27 20:43:00,45.0,43.1,30.27,SSW,209,3.5,3.5,93,0.00,CLR,OVC,0.00,WeatherDisplay:10.37,2013-02-28 04:43:00,
2013-02-27 20:45:00,45.0,43.1,30.27,SW,223,5.8,5.8,93,0.00,CLR,OVC,0.00,WeatherDisplay:10.37,2013-02-28 04:45:00,
2013-02-27 20:48:00,45.0,43.1,30.27,SSW,213,3.5,3.5,93,0.00,CLR,OVC,0.00,WeatherDisplay:10.37,2013-02-28 04:48:00,
2013-02-27 20:50:00,45.0,43.1,30.27,SSW,211,5.8,5.8,93,0.00,CLR,OVC,0.00,WeatherDisplay:10.37,2013-02-28 04:50:00,
2013-02-27 20:53:00,45.0,43.1,30.28,SW,222,4.0,4.0,93,0.00,CLR,OVC,0.00,WeatherDisplay:10.37,2013-02-28 04:53:00,
2013-02-27 20:55:00,45.0,43.1,30.28,SW,217,5.0,5.0,93,0.00,CLR,OVC,0.00,WeatherDisplay:10.37,2013-02-28 04:55:00,
2013-02-27 20:58:00,45.1,43.2,30.28,SW,217,4.6,4.6,93,0.00,CLR,OVC,0.00,WeatherDisplay:10.37,2013-02-28 04:58:00,
2013-02-27 21:00:00,45.1,43.2,30.28,SW,221,4.6,4.6,93,0.00,CLR,OVC,0.00,WeatherDisplay:10.37,2013-02-28 05:00:00,
2013-02-27 21:05:00,45.2,43.3,30.28,SW,222,5.8,5.8,93,0.00,CLR,OVC,0.00,WeatherDisplay:10.37,2013-02-28 05:05:00,
2013-02-27 21:06:00,45.2,43.3,30.28,SSW,206,4.6,4.6,93,0.00,CLR,OVC,0.00,WeatherDisplay:10.37,2013-02-28 05:06:00,
2013-02-27 21:10:00,45.1,43.2,30.27,SW,223,5.8,5.8,93,0.00,CLR,OVC,0.00,WeatherDisplay:10.37,2013-02-28 05:10:00,
2013-02-27 21:11:00,45.1,43.2,30.27,SW,232,5.8,5.8,93,0.00,CLR,OVC,0.00,WeatherDisplay:10.37,2013-02-28 05:11:00,
2013-02-27 21:15:00,45.1,43.2,30.27,SW,218,5.0,7.0,93,0.00,CLR,OVC,0.00,WeatherDisplay:10.37,2013-02-28 05:15:00,
2013-02-27 21:16:00,45.1,43.5,30.27,SW,223,5.8,5.8,94,0.00,CLR,OVC,0.00,WeatherDisplay:10.37,2013-02-28 05:16:00,
2013-02-27 21:20:00,45.0,43.4,30.27,SW,218,6.0,9.0,94,0.00,CLR,OVC,0.00,WeatherDisplay:10.37,2013-02-28 05:20:00,
2013-02-27 21:21:00,45.0,43.4,30.27,SW,225,8.1,8.1,94,0.00,CLR,OVC,0.00,WeatherDisplay:10.37,2013-02-28 05:21:00,
2013-02-27 21:25:00,44.9,43.3,30.27,SW,225,8.1,8.1,94,0.00,CLR,OVC,0.00,WeatherDisplay:10.37,2013-02-28 05:25:00,
2013-02-27 21:26:00,44.9,43.3,30.27,SW,219,6.9,6.9,94,0.00,CLR,OVC,0.00,WeatherDisplay:10.37,2013-02-28 05:26:00,
2013-02-27 21:30:00,44.9,43.3,30.27,SW,219,8.1,8.1,94,0.00,CLR,OVC,0.00,WeatherDisplay:10.37,2013-02-28 05:30:00,
2013-02-27 21:31:00,44.9,43.3,30.27,SW,224,8.1,8.1,94,0.00,CLR,OVC,0.00,WeatherDisplay:10.37,2013-02-28 05:31:00,
2013-02-27 21:35:00,44.8,43.2,30.27,SSE,162,6.9,6.9,94,0.00,CLR,OVC,0.00,WeatherDisplay:10.37,2013-02-28 05:35:00,
2013-02-27 21:36:00,44.8,43.5,30.27,SSW,198,8.1,8.1,95,0.00,CLR,OVC,0.00,WeatherDisplay:10.37,2013-02-28 05:36:00,
2013-02-27 21:37:00,44.9,43.6,30.27,SW,223,6.9,6.9,95,0.00,CLR,OVC,0.00,WeatherDisplay:10.37,2013-02-28 05:37:00,
2013-02-27 21:40:00,44.8,43.5,30.27,SW,223,6.0,6.0,95,0.00,CLR,OVC,0.00,WeatherDisplay:10.37,2013-02-28 05:40:00,
2013-02-27 21:41:00,44.7,43.4,30.27,SW,220,5.8,5.8,95,0.00,CLR,OVC,0.00,WeatherDisplay:10.37,2013-02-28 05:41:00,
2013-02-27 21:42:00,44.7,43.4,30.27,SSW,203,6.0,6.0,95,0.00,CLR,OVC,0.00,WeatherDisplay:10.37,2013-02-28 05:42:00,
2013-02-27 21:45:00,44.7,43.4,30.27,SSW,202,9.2,9.2,95,0.00,CLR,OVC,0.00,WeatherDisplay:10.37,2013-02-28 05:45:00,
2013-02-27 21:46:00,44.8,43.5,30.27,SW,215,9.2,9.2,95,0.00,CLR,OVC,0.00,WeatherDisplay:10.37,2013-02-28 05:46:00,
2013-02-27 21:47:00,44.8,43.5,30.27,SSW,211,8.1,8.1,95,0.00,CLR,OVC,0.00,WeatherDisplay:10.37,2013-02-28 05:47:00,
2013-02-27 21:50:00,44.7,43.4,30.27,SW,217,6.9,6.9,95,0.00,CLR,OVC,0.00,WeatherDisplay:10.37,2013-02-28 05:50:00,
2013-02-27 21:51:00,44.7,43.4,30.26,SSW,195,6.9,6.9,95,0.00,CLR,OVC,0.00,WeatherDisplay:10.37,2013-02-28 05:51:00,
2013-02-27 21:52:00,44.7,43.4,30.27,SW,223,6.9,6.9,95,0.00,CLR,OVC,0.00,WeatherDisplay:10.37,2013-02-28 05:52:00,
2013-02-27 21:53:00,44.7,43.4,30.26,SSW,205,7.0,7.0,95,0.00,CLR,OVC,0.00,WeatherDisplay:10.37,2013-02-28 05:53:00,
2013-02-27 21:55:00,44.7,43.6,30.26,SSW,211,5.8,5.8,96,0.00,CLR,OVC,0.00,WeatherDisplay:10.37,2013-02-28 05:55:00,
2013-02-27 21:56:00,44.7,43.6,30.26,SSW,210,8.1,8.1,96,0.00,CLR,OVC,0.00,WeatherDisplay:10.37,2013-02-28 05:56:00,
2013-02-27 21:57:00,44.7,43.6,30.26,SSW,195,8.1,8.1,96,0.00,CLR,OVC,0.00,WeatherDisplay:10.37,2013-02-28 05:57:00,
2013-02-27 21:58:00,44.7,43.6,30.26,South,169,8.1,8.1,96,0.00,CLR,OVC,0.00,WeatherDisplay:10.37,2013-02-28 05:58:00,
2013-02-27 22:00:00,44.6,43.5,30.26,SW,216,6.9,6.9,96,0.00,CLR,OVC,0.00,WeatherDisplay:10.37,2013-02-28 06:00:00,
2013-02-27 22:01:00,44.6,43.5,30.26,SSW,212,6.9,6.9,96,0.00,CLR,OVC,0.00,WeatherDisplay:10.37,2013-02-28 06:01:00,
2013-02-27 22:02:00,44.6,43.5,30.26,SSW,207,6.9,6.9,96,0.00,CLR,OVC,0.00,WeatherDisplay:10.37,2013-02-28 06:02:00,
2013-02-27 22:03:00,44.6,43.5,30.26,SSW,203,5.8,5.8,96,0.00,CLR,OVC,0.00,WeatherDisplay:10.37,2013-02-28 06:03:00,
2013-02-27 22:05:00,44.5,43.4,30.26,SW,223,7.0,7.0,96,0.00,CLR,OVC,0.00,WeatherDisplay:10.37,2013-02-28 06:05:00,
2013-02-27 22:06:00,44.5,43.4,30.26,SSW,210,8.1,8.1,96,0.00,CLR,OVC,0.00,WeatherDisplay:10.37,2013-02-28 06:06:00,
2013-02-27 22:07:00,44.5,43.4,30.26,SW,217,6.9,6.9,96,0.00,CLR,OVC,0.00,WeatherDisplay:10.37,2013-02-28 06:07:00,
2013-02-27 22:08:00,44.5,43.4,30.26,SW,220,7.0,7.0,96,0.00,CLR,OVC,0.00,WeatherDisplay:10.37,2013-02-28 06:08:00,
2013-02-27 22:11:00,44.5,43.4,30.26,SSW,211,9.2,9.2,96,0.00,CLR,OVC,0.00,WeatherDisplay:10.37,2013-02-28 06:11:00,
2013-02-27 22:12:00,44.5,43.4,30.26,SSW,209,8.1,8.1,96,0.00,CLR,OVC,0.00,WeatherDisplay:10.37,2013-02-28 06:12:00,
2013-02-27 22:13:00,44.5,43.4,30.26,SSW,203,6.0,6.0,96,0.00,CLR,OVC,0.00,WeatherDisplay:10.37,2013-02-28 06:13:00,
2013-02-27 22:16:00,44.5,43.7,30.27,SSW,194,9.2,9.2,97,0.00,CLR,OVC,0.00,WeatherDisplay:10.37,2013-02-28 06:16:00,
2013-02-27 22:17:00,44.5,43.7,30.27,SW,217,7.0,7.0,97,0.00,CLR,OVC,0.00,WeatherDisplay:10.37,2013-02-28 06:17:00,
2013-02-27 22:18:00,44.5,43.7,30.27,South,178,8.1,8.1,97,0.00,CLR,OVC,0.00,WeatherDisplay:10.37,2013-02-28 06:18:00,
2013-02-27 22:21:00,44.4,43.6,30.26,South,171,9.2,9.2,97,0.00,CLR,OVC,0.00,WeatherDisplay:10.37,2013-02-28 06:21:00,
2013-02-27 22:22:00,44.4,43.6,30.26,South,171,9.2,9.2,97,0.00,CLR,OVC,0.00,WeatherDisplay:10.37,2013-02-28 06:22:00,
2013-02-27 22:23:00,44.4,43.6,30.27,SSE,154,10.4,10.4,97,0.00,CLR,OVC,0.00,WeatherDisplay:10.37,2013-02-28 06:23:00,
2013-02-27 22:27:00,44.3,43.8,30.26,SSW,213,9.2,9.2,98,0.00,CLR,OVC,0.00,WeatherDisplay:10.37,2013-02-28 06:27:00,
2013-02-27 22:28:00,44.3,43.8,30.26,SSW,197,10.4,10.4,98,0.00,CLR,OVC,0.00,WeatherDisplay:10.37,2013-02-28 06:28:00,
2013-02-27 22:32:00,44.2,43.7,30.26,SW,214,10.4,10.4,98,0.00,CLR,OVC,0.00,WeatherDisplay:10.37,2013-02-28 06:32:00,
2013-02-27 22:33:00,44.1,43.6,30.26,SW,228,7.0,7.0,98,0.00,CLR,OVC,0.00,WeatherDisplay:10.37,2013-02-28 06:33:00,
2013-02-27 22:34:00,44.1,43.6,30.26,SSW,213,6.9,6.9,98,0.00,CLR,OVC,0.00,WeatherDisplay:10.37,2013-02-28 06:34:00,
2013-02-27 22:37:00,44.0,43.5,30.26,SW,214,9.2,9.2,98,0.00,CLR,OVC,0.00,WeatherDisplay:10.37,2013-02-28 06:37:00,
2013-02-27 22:38:00,44.0,43.5,30.26,SSW,205,9.2,9.2,98,0.00,CLR,OVC,0.00,WeatherDisplay:10.37,2013-02-28 06:38:00,
2013-02-27 22:39:00,44.0,43.5,30.26,SW,224,8.1,8.1,98,0.00,CLR,OVC,0.00,WeatherDisplay:10.37,2013-02-28 06:39:00,
2013-02-27 22:42:00,44.0,43.7,30.26,SW,221,10.4,10.4,99,0.00,CLR,OVC,0.00,WeatherDisplay:10.37,2013-02-28 06:42:00,
2013-02-27 22:43:00,43.9,43.6,30.26,SSW,209,10.4,10.4,99,0.00,CLR,OVC,0.00,WeatherDisplay:10.37,2013-02-28 06:43:00,
2013-02-27 22:44:00,43.9,43.6,30.26,SW,228,8.1,8.1,99,0.00,CLR,OVC,0.00,WeatherDisplay:10.37,2013-02-28 06:44:00,
2013-02-27 22:47:00,43.9,43.6,30.26,SW,230,8.1,8.1,99,0.00,CLR,OVC,0.00,WeatherDisplay:10.37,2013-02-28 06:47:00,
2013-02-27 22:48:00,43.9,43.6,30.26,SW,229,8.1,8.1,99,0.00,CLR,OVC,0.00,WeatherDisplay:10.37,2013-02-28 06:48:00,
2013-02-27 22:49:00,43.9,43.6,30.26,SW,216,6.0,6.0,99,0.00,CLR,OVC,0.00,WeatherDisplay:10.37,2013-02-28 06:49:00,
2013-02-27 22:52:00,43.9,43.6,30.26,South,184,8.1,8.1,99,0.00,CLR,OVC,0.00,WeatherDisplay:10.37,2013-02-28 06:52:00,
2013-02-27 22:53:00,43.8,43.5,30.26,SSW,199,6.9,6.9,99,0.00,CLR,OVC,0.00,WeatherDisplay:10.37,2013-02-28 06:53:00,
2013-02-27 22:54:00,43.8,43.5,30.26,SSW,210,6.9,6.9,99,0.00,CLR,OVC,0.00,WeatherDisplay:10.37,2013-02-28 06:54:00,
2013-02-27 22:57:00,43.8,43.5,30.26,SW,217,6.9,6.9,99,0.00,CLR,OVC,0.00,WeatherDisplay:10.37,2013-02-28 06:57:00,
2013-02-27 22:58:00,43.8,43.5,30.26,SSW,205,7.0,7.0,99,0.00,CLR,OVC,0.00,WeatherDisplay:10.37,2013-02-28 06:58:00,
2013-02-27 22:59:00,43.8,43.5,30.26,SW,227,8.1,8.1,99,0.00,CLR,OVC,0.00,WeatherDisplay:10.37,2013-02-28 06:59:00,
2013-02-27 23:02:00,43.8,43.5,30.26,SW,229,4.6,4.6,99,0.00,CLR,OVC,0.00,WeatherDisplay:10.37,2013-02-28 07:02:00,
2013-02-27 23:03:00,43.8,43.8,30.26,SW,219,4.6,4.6,100,0.00,CLR,OVC,0.00,WeatherDisplay:10.37,2013-02-28 07:03:00,
2013-02-27 23:04:00,43.8,43.8,30.26,SSW,209,4.6,4.6,100,0.00,,OVC,0.00,WeatherDisplay:10.37,2013-02-28 07:04:00,
2013-02-27 23:05:00,43.8,43.8,30.26,SSW,209,4.6,4.6,100,0.00,,OVC,0.00,WeatherDisplay:10.37,2013-02-28 07:05:00,
2013-02-27 23:07:00,43.8,43.8,30.26,SSW,211,3.5,3.5,100,0.00,,OVC,0.00,WeatherDisplay:10.37,2013-02-28 07:07:00,
2013-02-27 23:08:00,43.8,43.8,30.26,SSE,157,3.5,3.5,100,0.00,,OVC,0.00,WeatherDisplay:10.37,2013-02-28 07:08:00,
2013-02-27 23:09:00,43.8,43.8,30.26,SSE,164,4.0,4.0,100,0.00,,OVC,0.00,WeatherDisplay:10.37,2013-02-28 07:09:00,
2013-02-27 23:10:00,43.8,43.8,30.26,SSE,164,3.5,3.5,100,0.00,,OVC,0.00,WeatherDisplay:10.37,2013-02-28 07:10:00,
2013-02-27 23:12:00,43.8,43.8,30.26,SSE,164,4.0,4.0,100,0.00,,OVC,0.00,WeatherDisplay:10.37,2013-02-28 07:12:00,
2013-02-27 23:13:00,43.8,43.8,30.26,SSE,164,3.5,3.5,100,0.00,,OVC,0.00,WeatherDisplay:10.37,2013-02-28 07:13:00,
2013-02-27 23:14:00,43.8,43.8,30.26,SSE,164,5.0,5.0,100,0.00,,OVC,0.00,WeatherDisplay:10.37,2013-02-28 07:14:00,
2013-02-27 23:15:00,43.8,43.8,30.26,South,175,3.0,5.0,100,0.00,,OVC,0.00,WeatherDisplay:10.37,2013-02-28 07:15:00,
2013-02-27 23:18:00,43.8,43.8,30.26,SSE,165,4.6,4.6,100,0.00,,OVC,0.00,WeatherDisplay:10.37,2013-02-28 07:18:00,
2013-02-27 23:19:00,43.8,43.8,30.26,SSE,165,4.6,4.6,100,0.00,,OVC,0.00,WeatherDisplay:10.37,2013-02-28 07:19:00,
2013-02-27 23:20:00,43.8,43.8,30.26,SSE,165,4.0,4.0,100,0.00,,OVC,0.00,WeatherDisplay:10.37,2013-02-28 07:20:00,
2013-02-27 23:23:00,43.8,43.8,30.26,SSE,165,3.5,3.5,100,0.00,,OVC,0.00,WeatherDisplay:10.37,2013-02-28 07:23:00,
2013-02-27 23:24:00,43.8,43.8,30.26,SSE,165,3.5,3.5,100,0.00,,OVC,0.00,WeatherDisplay:10.37,2013-02-28 07:24:00,
2013-02-27 23:25:00,43.8,43.8,30.26,SSE,165,4.6,4.6,100,0.00,,OVC,0.00,WeatherDisplay:10.37,2013-02-28 07:25:00,
2013-02-27 23:28:00,43.9,43.9,30.26,SSE,158,3.5,3.7,100,0.00,,OVC,0.00,WeatherDisplay:10.37,2013-02-28 07:28:00,
2013-02-27 23:29:00,43.9,43.9,30.26,SSE,161,4.6,4.6,100,0.00,,OVC,0.00,WeatherDisplay:10.37,2013-02-28 07:29:00,
2013-02-27 23:30:00,43.9,43.9,30.26,SSE,164,3.5,3.5,100,0.00,,OVC,0.00,WeatherDisplay:10.37,2013-02-28 07:30:00,
2013-02-27 23:34:00,43.9,43.9,30.25,South,171,4.6,4.6,100,0.00,,OVC,0.00,WeatherDisplay:10.37,2013-02-28 07:34:00,
2013-02-27 23:36:00,44.0,44.0,30.25,South,171,3.5,3.5,100,0.00,,OVC,0.00,WeatherDisplay:10.37,2013-02-28 07:36:00,
2013-02-27 23:39:00,43.9,43.9,30.25,South,171,4.6,4.6,100,0.00,,OVC,0.00,WeatherDisplay:10.37,2013-02-28 07:39:00,
2013-02-27 23:41:00,44.0,44.0,30.26,South,171,2.3,2.3,100,0.00,,OVC,0.00,WeatherDisplay:10.37,2013-02-28 07:41:00,
2013-02-27 23:44:00,44.0,43.7,30.26,South,171,4.0,4.0,99,0.00,CLR,OVC,0.00,WeatherDisplay:10.37,2013-02-28 07:44:00,
2013-02-27 23:45:00,44.0,43.7,30.26,South,171,3.5,3.5,99,0.00,CLR,OVC,0.00,WeatherDisplay:10.37,2013-02-28 07:45:00,
2013-02-27 23:46:00,44.0,43.7,30.26,South,171,3.5,3.5,99,0.00,CLR,OVC,0.00,WeatherDisplay:10.37,2013-02-28 07:46:00,
2013-02-27 23:49:00,44.0,43.7,30.26,SSW,205,4.6,4.6,99,0.00,CLR,OVC,0.00,WeatherDisplay:10.37,2013-02-28 07:49:00,
2013-02-27 23:50:00,44.0,43.7,30.26,South,176,2.0,5.0,99,0.00,CLR,OVC,0.00,WeatherDisplay:10.37,2013-02-28 07:50:00,
2013-02-27 23:51:00,44.0,43.7,30.26,SE,138,4.6,4.6,99,0.00,CLR,OVC,0.00,WeatherDisplay:10.37,2013-02-28 07:51:00,
2013-02-27 23:54:00,44.1,43.8,30.25,SSE,163,4.6,4.6,99,0.00,CLR,OVC,0.00,WeatherDisplay:10.37,2013-02-28 07:54:00,
2013-02-27 23:55:00,44.0,43.8,30.25,SSE,165,2.0,6.0,99,0.00,CLR,OVC,0.00,WeatherDisplay:10.37,2013-02-28 07:55:00,
2013-02-27 23:56:00,44.1,43.8,30.25,SSE,164,5.8,5.8,99,0.00,CLR,OVC,0.00,WeatherDisplay:10.37,2013-02-28 07:56:00,
2013-02-27 23:59:00,44.1,43.8,30.25,South,186,6.9,6.9,99,0.00,CLR,OVC,0.00,WeatherDisplay:10.37,2013-02-28 07:59:00,